GFSNGP_prec_precacc_084.txt.gz
Total_Precipitation_Accumulation
0.03 0.09 0.03 0.03 0.07 0.04 0.01 0.01 0.03 0.01 0.01 0.00 0.00 0.00 0.00 0.00 0.00 0.00 0.00 0.00 0.01 0.01 0.03 0.04 0.07 0.10 0.11 0.21 0.24 0.27 0.32 0.29 0.26 0.23 0.18 0.16 0.16 0.12 0.13 0.07 0.06 0.08 0.12 0.19
0.00 0.00 0.00 0.00 0.01 0.01 0.02 0.01 0.01 0.00 0.00 0.00 0.00 0.00 0.00 0.00 0.00 0.00 0.00 0.00 0.00 0.01 0.03 0.04 0.06 0.09 0.10 0.11 0.15 0.15 0.22 0.18 0.14 0.14 0.16 0.13 0.13 0.15 0.08 0.07 0.10 0.14 0.16 0.15
0.02 0.00 0.00 0.01 0.00 0.00 0.00 0.00 0.00 0.00 0.00 0.00 0.00 0.00 0.00 0.00 0.00 0.00 0.00 0.00 0.00 0.00 0.02 0.12 0.05 0.06 0.06 0.08 0.09 0.11 0.10 0.09 0.08 0.13 0.11 0.12 0.10 0.12 0.19 0.29 0.28 0.23 0.23 0.18
0.08 0.03 0.12 0.04 0.00 0.00 0.00 0.00 0.00 0.00 0.01 0.00 0.00 0.00 0.00 0.00 0.00 0.00 0.00 0.00 0.00 0.00 0.08 0.06 0.01 0.02 0.03 0.03 0.03 0.03 0.03 0.04 0.07 0.09 0.09 0.08 0.14 0.20 0.28 0.32 0.31 0.22 0.14 0.12
0.16 0.08 0.05 0.00 0.00 0.00 0.00 0.00 0.00 0.00 0.01 0.00 0.00 0.00 0.01 0.00 0.02 0.02 0.02 0.01 0.00 0.00 0.00 0.00 0.00 0.00 0.01 0.01 0.00 0.01 0.02 0.03 0.04 0.05 0.08 0.16 0.28 0.33 0.22 0.14 0.10 0.08 0.11 0.10
0.33 0.22 0.08 0.00 0.00 0.00 0.00 0.00 0.00 0.00 0.01 0.00 0.00 0.01 0.04 0.05 0.06 0.06 0.01 0.00 0.00 0.00 0.00 0.00 0.00 0.00 0.00 0.00 0.00 0.01 0.02 0.03 0.03 0.13 0.28 0.32 0.23 0.07 0.03 0.04 0.07 0.06 0.07 0.08
0.33 0.30 0.06 0.00 0.00 0.01 0.10 0.09 0.01 0.02 0.01 0.01 0.01 0.06 0.09 0.05 0.05 0.01 0.00 0.00 0.00 0.00 0.00 0.00 0.00 0.00 0.00 0.00 0.01 0.02 0.06 0.14 0.23 0.23 0.12 0.06 0.05 0.04 0.04 0.04 0.05 0.07 0.08 0.08
0.37 0.34 0.13 0.02 0.11 0.20 0.14 0.04 0.02 0.02 0.00 0.02 0.07 0.08 0.02 0.00 0.00 0.00 0.00 0.00 0.00 0.00 0.00 0.01 0.01 0.01 0.01 0.01 0.02 0.03 0.05 0.05 0.05 0.08 0.07 0.06 0.06 0.06 0.08 0.08 0.08 0.07 0.08 0.11
0.11 0.07 0.03 0.06 0.12 0.14 0.09 0.10 0.07 0.03 0.04 0.09 0.05 0.00 0.00 0.00 0.00 0.00 0.00 0.00 0.00 0.01 0.02 0.02 0.01 0.01 0.02 0.01 0.02 0.01 0.02 0.03 0.05 0.09 0.10 0.10 0.13 0.12 0.12 0.12 0.11 0.11 0.10 0.11
0.14 0.08 0.13 0.17 0.09 0.03 0.02 0.02 0.01 0.02 0.04 0.03 0.02 0.02 0.03 0.02 0.01 0.01 0.01 0.02 0.02 0.02 0.01 0.01 0.01 0.01 0.02 0.02 0.03 0.04 0.03 0.02 0.03 0.08 0.13 0.10 0.11 0.10 0.11 0.12 0.16 0.21 0.25 0.27
0.07 0.05 0.18 0.26 0.17 0.12 0.05 0.02 0.00 0.01 0.01 0.01 0.01 0.02 0.01 0.02 0.01 0.01 0.01 0.01 0.01 0.01 0.01 0.00 0.02 0.02 0.04 0.04 0.04 0.05 0.06 0.07 0.08 0.08 0.08 0.07 0.10 0.17 0.18 0.21 0.32 0.34 0.38 0.43
0.16 0.09 0.16 0.21 0.05 0.03 0.02 0.02 0.01 0.01 0.01 0.02 0.02 0.00 0.01 0.02 0.02 0.01 0.01 0.02 0.02 0.02 0.01 0.02 0.02 0.02 0.02 0.01 0.03 0.07 0.10 0.11 0.17 0.16 0.17 0.17 0.18 0.23 0.29 0.28 0.30 0.29 0.35 0.39
0.04 0.04 0.08 0.09 0.04 0.02 0.02 0.01 0.00 0.01 0.01 0.02 0.03 0.02 0.05 0.04 0.03 0.03 0.03 0.03 0.02 0.02 0.03 0.04 0.04 0.06 0.11 0.15 0.15 0.16 0.18 0.19 0.19 0.18 0.20 0.22 0.24 0.27 0.36 0.51 0.59 0.67 0.75 0.82
0.05 0.05 0.06 0.04 0.03 0.01 0.01 0.01 0.02 0.01 0.01 0.02 0.07 0.08 0.06 0.05 0.04 0.03 0.03 0.01 0.02 0.02 0.03 0.05 0.11 0.23 0.36 0.49 0.59 0.71 0.82 0.92 0.93 0.97 0.91 0.83 0.80 0.82 0.85 0.86 0.90 0.96 0.82 0.65
0.06 0.08 0.08 0.06 0.04 0.03 0.02 0.03 0.04 0.07 0.13 0.17 0.13 0.07 0.04 0.03 0.03 0.02 0.01 0.01 0.02 0.03 0.06 0.11 0.17 0.26 0.35 0.44 0.54 0.64 0.73 0.82 0.86 0.90 0.91 0.86 0.79 0.77 0.74 0.70 0.63 0.60 0.54 0.49
0.02 0.03 0.05 0.06 0.06 0.04 0.04 0.06 0.12 0.28 0.24 0.14 0.07 0.04 0.04 0.04 0.04 0.03 0.04 0.03 0.04 0.07 0.09 0.11 0.15 0.20 0.17 0.18 0.23 0.32 0.47 0.62 0.60 0.65 0.73 0.71 0.70 0.67 0.64 0.59 0.55 0.51 0.46 0.42
0.01 0.01 0.03 0.08 0.11 0.14 0.22 0.28 0.30 0.26 0.15 0.07 0.06 0.06 0.05 0.04 0.04 0.07 0.09 0.10 0.10 0.13 0.13 0.17 0.31 0.34 0.38 0.46 0.52 0.68 0.75 0.80 0.76 0.70 0.70 0.67 0.61 0.54 0.48 0.45 0.42 0.39 0.40 0.37
0.02 0.03 0.06 0.13 0.29 0.31 0.22 0.15 0.12 0.11 0.12 0.14 0.14 0.13 0.16 0.18 0.23 0.28 0.32 0.28 0.24 0.30 0.48 0.63 0.65 0.66 0.68 0.71 0.67 0.67 0.64 0.63 0.58 0.55 0.52 0.48 0.43 0.38 0.40 0.41 0.37 0.32 0.27 0.19
0.12 0.19 0.23 0.25 0.22 0.18 0.14 0.14 0.15 0.16 0.19 0.23 0.27 0.37 0.43 0.51 0.53 0.63 0.66 0.63 0.71 0.73 1.06 0.91 0.76 0.66 0.65 0.63 0.49 0.46 0.43 0.38 0.33 0.33 0.32 0.32 0.31 0.31 0.30 0.26 0.24 0.22 0.22 0.23
0.21 0.17 0.15 0.12 0.09 0.10 0.14 0.20 0.23 0.31 0.43 0.45 0.54 0.69 0.82 1.01 1.00 0.98 0.86 0.86 0.93 0.96 0.89 0.72 0.50 0.40 0.37 0.32 0.24 0.22 0.23 0.25 0.25 0.25 0.24 0.21 0.20 0.19 0.18 0.18 0.23 0.26 0.24 0.22
0.44 0.41 0.41 0.41 0.47 0.54 0.61 0.72 0.68 0.86 1.10 1.06 0.89 0.96 0.95 1.05 0.98 0.90 0.73 0.67 0.80 0.62 0.47 0.39 0.32 0.28 0.21 0.18 0.16 0.16 0.16 0.16 0.18 0.19 0.21 0.21 0.20 0.23 0.28 0.28 0.24 0.23 0.23 0.21
0.62 0.62 0.72 0.74 0.67 0.83 0.95 0.92 0.78 0.78 0.78 0.77 0.74 0.73 0.63 0.72 0.64 0.55 0.51 0.46 0.51 0.38 0.27 0.22 0.19 0.13 0.10 0.10 0.12 0.13 0.13 0.17 0.20 0.21 0.23 0.27 0.31 0.27 0.22 0.20 0.20 0.19 0.19 0.18
0.63 0.60 0.60 0.62 0.56 0.62 0.67 0.64 0.65 0.54 0.54 0.56 0.55 0.57 0.48 0.49 0.45 0.35 0.35 0.34 0.23 0.19 0.15 0.13 0.11 0.07 0.07 0.11 0.12 0.14 0.16 0.21 0.24 0.26 0.26 0.21 0.20 0.20 0.18 0.16 0.15 0.16 0.17 0.16
0.59 0.58 0.60 0.61 0.44 0.30 0.38 0.56 0.44 0.42 0.37 0.36 0.33 0.31 0.23 0.20 0.23 0.18 0.17 0.15 0.10 0.09 0.08 0.08 0.07 0.06 0.08 0.15 0.17 0.19 0.20 0.21 0.16 0.16 0.16 0.16 0.16 0.16 0.16 0.15 0.14 0.13 0.15 0.15
0.52 0.52 0.52 0.48 0.36 0.43 0.39 0.37 0.24 0.23 0.17 0.16 0.15 0.13 0.10 0.09 0.16 0.12 0.06 0.06 0.07 0.10 0.09 0.08 0.09 0.08 0.14 0.16 0.17 0.16 0.16 0.15 0.13 0.16 0.17 0.17 0.16 0.17 0.16 0.15 0.16 0.15 0.15 0.14
0.41 0.38 0.39 0.34 0.33 0.28 0.22 0.15 0.14 0.15 0.10 0.09 0.12 0.11 0.09 0.08 0.07 0.08 0.08 0.08 0.08 0.09 0.14 0.13 0.11 0.10 0.15 0.16 0.16 0.14 0.16 0.15 0.14 0.16 0.18 0.17 0.17 0.16 0.15 0.14 0.14 0.14 0.15 0.16
0.33 0.30 0.22 0.17 0.17 0.16 0.14 0.14 0.12 0.14 0.14 0.13 0.15 0.11 0.11 0.09 0.09 0.10 0.10 0.12 0.12 0.11 0.14 0.14 0.14 0.13 0.15 0.17 0.17 0.16 0.16 0.16 0.15 0.15 0.16 0.17 0.17 0.16 0.16 0.16 0.17 0.16 0.15 0.16

GFSNGP_prec_precacc_087.txt.gz
Total_Precipitation_Accumulation
0.03 0.11 0.21 0.23 0.16 0.10 0.08 0.05 0.08 0.02 0.03 0.08 0.02 0.01 0.00 0.00 0.00 0.00 0.00 0.00 0.01 0.01 0.03 0.07 0.12 0.12 0.12 0.21 0.24 0.27 0.32 0.29 0.26 0.23 0.18 0.16 0.16 0.12 0.13 0.07 0.06 0.08 0.12 0.19
0.00 0.00 0.00 0.01 0.04 0.09 0.13 0.11 0.10 0.06 0.02 0.03 0.00 0.00 0.00 0.00 0.00 0.00 0.00 0.00 0.00 0.01 0.03 0.04 0.06 0.10 0.13 0.12 0.15 0.15 0.22 0.18 0.14 0.14 0.16 0.13 0.13 0.15 0.08 0.07 0.10 0.14 0.16 0.15
0.02 0.00 0.00 0.01 0.00 0.00 0.01 0.01 0.01 0.02 0.00 0.00 0.00 0.00 0.00 0.00 0.00 0.00 0.00 0.00 0.00 0.00 0.02 0.12 0.05 0.06 0.07 0.11 0.11 0.11 0.10 0.09 0.08 0.14 0.11 0.12 0.10 0.12 0.19 0.29 0.29 0.23 0.24 0.18
0.08 0.03 0.12 0.04 0.00 0.00 0.00 0.00 0.00 0.00 0.01 0.00 0.00 0.00 0.00 0.00 0.00 0.00 0.00 0.00 0.00 0.00 0.08 0.06 0.01 0.02 0.03 0.05 0.06 0.06 0.06 0.06 0.07 0.10 0.11 0.12 0.14 0.20 0.28 0.32 0.31 0.22 0.14 0.13
0.16 0.08 0.05 0.00 0.00 0.00 0.00 0.00 0.01 0.01 0.03 0.01 0.00 0.00 0.01 0.01 0.02 0.02 0.02 0.01 0.00 0.00 0.00 0.00 0.00 0.00 0.01 0.01 0.00 0.02 0.05 0.07 0.06 0.06 0.11 0.20 0.29 0.33 0.22 0.14 0.10 0.08 0.11 0.10
0.33 0.23 0.08 0.00 0.00 0.00 0.00 0.01 0.01 0.00 0.03 0.01 0.01 0.03 0.05 0.05 0.06 0.06 0.01 0.00 0.00 0.00 0.00 0.00 0.00 0.00 0.00 0.00 0.00 0.01 0.03 0.06 0.06 0.18 0.33 0.36 0.26 0.08 0.03 0.05 0.07 0.06 0.08 0.08
0.33 0.31 0.06 0.00 0.00 0.01 0.11 0.10 0.01 0.02 0.01 0.01 0.01 0.07 0.10 0.05 0.05 0.01 0.00 0.00 0.00 0.00 0.00 0.00 0.00 0.00 0.00 0.00 0.01 0.02 0.06 0.14 0.24 0.26 0.18 0.11 0.09 0.07 0.07 0.09 0.09 0.08 0.08 0.09
0.38 0.36 0.14 0.02 0.11 0.22 0.17 0.04 0.02 0.02 0.00 0.02 0.07 0.08 0.02 0.00 0.00 0.01 0.00 0.00 0.00 0.00 0.00 0.01 0.01 0.01 0.01 0.01 0.02 0.03 0.05 0.05 0.05 0.10 0.13 0.14 0.13 0.14 0.13 0.11 0.10 0.08 0.09 0.12
0.11 0.08 0.06 0.13 0.17 0.18 0.11 0.10 0.07 0.03 0.04 0.09 0.05 0.00 0.00 0.00 0.00 0.00 0.00 0.00 0.00 0.01 0.02 0.02 0.01 0.01 0.02 0.01 0.02 0.01 0.02 0.03 0.05 0.10 0.13 0.16 0.21 0.21 0.21 0.20 0.16 0.16 0.16 0.16
0.16 0.14 0.16 0.34 0.23 0.04 0.03 0.02 0.01 0.02 0.04 0.03 0.02 0.02 0.03 0.02 0.01 0.01 0.01 0.02 0.02 0.02 0.01 0.01 0.01 0.01 0.02 0.02 0.03 0.04 0.03 0.02 0.03 0.09 0.14 0.12 0.15 0.15 0.16 0.17 0.20 0.27 0.32 0.34
0.21 0.26 0.28 0.49 0.45 0.20 0.06 0.02 0.00 0.01 0.01 0.01 0.01 0.02 0.01 0.02 0.01 0.01 0.01 0.01 0.01 0.01 0.01 0.00 0.02 0.02 0.04 0.04 0.04 0.05 0.06 0.07 0.08 0.09 0.10 0.08 0.11 0.22 0.26 0.36 0.49 0.53 0.61 0.68
0.47 0.31 0.30 0.37 0.14 0.05 0.02 0.02 0.01 0.01 0.01 0.02 0.02 0.00 0.01 0.02 0.02 0.01 0.01 0.02 0.02 0.02 0.01 0.02 0.02 0.02 0.02 0.01 0.03 0.07 0.10 0.11 0.18 0.18 0.20 0.21 0.23 0.30 0.39 0.41 0.44 0.44 0.53 0.60
0.09 0.13 0.11 0.11 0.05 0.02 0.02 0.01 0.00 0.01 0.01 0.02 0.03 0.02 0.05 0.04 0.03 0.03 0.03 0.03 0.02 0.02 0.03 0.04 0.04 0.06 0.11 0.15 0.15 0.16 0.18 0.19 0.19 0.20 0.26 0.31 0.37 0.43 0.54 0.74 0.82 0.94 1.01 1.06
0.05 0.06 0.06 0.04 0.03 0.01 0.01 0.01 0.02 0.01 0.01 0.02 0.07 0.08 0.06 0.05 0.04 0.03 0.03 0.01 0.02 0.02 0.03 0.06 0.12 0.23 0.37 0.49 0.59 0.71 0.83 0.94 0.94 1.00 0.99 0.95 0.91 0.91 0.94 0.98 1.07 1.27 1.21 1.04
0.06 0.08 0.08 0.06 0.04 0.03 0.02 0.03 0.04 0.07 0.13 0.17 0.13 0.07 0.04 0.03 0.03 0.03 0.02 0.01 0.02 0.03 0.06 0.11 0.17 0.27 0.37 0.45 0.55 0.65 0.74 0.84 0.89 0.93 0.95 0.92 0.89 0.89 0.86 0.82 0.75 0.73 0.66 0.60
0.02 0.03 0.05 0.06 0.06 0.04 0.04 0.06 0.12 0.29 0.24 0.14 0.07 0.04 0.04 0.04 0.04 0.04 0.04 0.04 0.05 0.08 0.10 0.12 0.18 0.25 0.21 0.21 0.25 0.33 0.49 0.64 0.61 0.67 0.76 0.73 0.74 0.71 0.70 0.67 0.65 0.61 0.56 0.52
0.01 0.01 0.03 0.08 0.11 0.15 0.22 0.28 0.30 0.26 0.16 0.08 0.07 0.06 0.06 0.05 0.05 0.08 0.10 0.11 0.11 0.14 0.15 0.19 0.35 0.39 0.42 0.50 0.55 0.71 0.77 0.82 0.77 0.72 0.72 0.70 0.64 0.57 0.52 0.49 0.46 0.43 0.45 0.43
0.02 0.03 0.06 0.13 0.30 0.31 0.22 0.15 0.12 0.11 0.13 0.15 0.14 0.14 0.16 0.19 0.25 0.30 0.34 0.30 0.25 0.31 0.50 0.67 0.70 0.71 0.72 0.75 0.70 0.71 0.67 0.65 0.60 0.57 0.54 0.50 0.45 0.40 0.42 0.43 0.39 0.35 0.30 0.22
0.12 0.19 0.23 0.25 0.23 0.18 0.15 0.14 0.16 0.17 0.20 0.24 0.28 0.38 0.45 0.52 0.54 0.65 0.68 0.65 0.73 0.75 1.10 0.96 0.81 0.72 0.71 0.69 0.53 0.49 0.45 0.40 0.35 0.34 0.33 0.33 0.32 0.32 0.31 0.26 0.25 0.22 0.22 0.24
0.21 0.17 0.15 0.12 0.09 0.11 0.14 0.21 0.24 0.31 0.44 0.46 0.54 0.70 0.83 1.03 1.01 1.00 0.87 0.87 0.95 0.99 0.93 0.77 0.54 0.43 0.40 0.36 0.27 0.24 0.25 0.26 0.26 0.26 0.24 0.21 0.20 0.19 0.18 0.18 0.23 0.26 0.24 0.22
0.44 0.41 0.41 0.41 0.47 0.54 0.62 0.73 0.68 0.87 1.12 1.07 0.90 0.97 0.96 1.07 0.99 0.92 0.74 0.68 0.81 0.62 0.47 0.39 0.32 0.28 0.21 0.18 0.16 0.16 0.16 0.16 0.18 0.19 0.21 0.21 0.20 0.23 0.28 0.28 0.24 0.24 0.23 0.21
0.62 0.62 0.72 0.74 0.67 0.84 0.95 0.93 0.78 0.79 0.79 0.78 0.76 0.75 0.65 0.74 0.65 0.55 0.51 0.47 0.51 0.38 0.27 0.22 0.19 0.13 0.10 0.10 0.12 0.13 0.13 0.17 0.20 0.21 0.23 0.27 0.31 0.27 0.22 0.20 0.20 0.19 0.19 0.18
0.64 0.60 0.60 0.62 0.57 0.62 0.67 0.64 0.66 0.55 0.55 0.57 0.57 0.58 0.48 0.49 0.45 0.35 0.35 0.34 0.23 0.19 0.15 0.13 0.11 0.07 0.07 0.11 0.12 0.14 0.16 0.21 0.24 0.26 0.26 0.21 0.20 0.20 0.18 0.16 0.15 0.16 0.17 0.17
0.60 0.58 0.60 0.61 0.44 0.30 0.39 0.56 0.44 0.42 0.37 0.36 0.33 0.31 0.23 0.20 0.23 0.18 0.17 0.15 0.10 0.09 0.08 0.08 0.07 0.06 0.08 0.15 0.17 0.19 0.20 0.21 0.16 0.16 0.16 0.16 0.16 0.16 0.16 0.15 0.14 0.13 0.15 0.15
0.53 0.53 0.53 0.49 0.37 0.43 0.39 0.37 0.24 0.23 0.17 0.16 0.15 0.13 0.10 0.09 0.16 0.12 0.06 0.06 0.07 0.10 0.09 0.08 0.09 0.08 0.14 0.16 0.17 0.16 0.16 0.15 0.13 0.16 0.17 0.17 0.16 0.17 0.16 0.15 0.16 0.15 0.15 0.14
0.41 0.39 0.40 0.36 0.34 0.29 0.24 0.15 0.14 0.15 0.10 0.09 0.12 0.11 0.09 0.08 0.07 0.08 0.08 0.08 0.08 0.09 0.14 0.13 0.11 0.10 0.15 0.16 0.16 0.14 0.16 0.15 0.14 0.16 0.18 0.17 0.17 0.16 0.15 0.14 0.14 0.14 0.15 0.16
0.34 0.31 0.23 0.17 0.17 0.16 0.14 0.14 0.13 0.14 0.14 0.13 0.15 0.11 0.11 0.09 0.09 0.10 0.10 0.12 0.12 0.11 0.14 0.15 0.14 0.13 0.15 0.17 0.17 0.16 0.16 0.16 0.15 0.15 0.16 0.17 0.17 0.16 0.16 0.16 0.17 0.16 0.15 0.16

GFSNGP_prec_precacc_090.txt.gz
Total_Precipitation_Accumulation
0.03 0.12 0.21 0.25 0.23 0.21 0.21 0.12 0.12 0.03 0.05 0.08 0.11 0.28 0.19 0.03 0.00 0.00 0.00 0.00 0.01 0.01 0.03 0.09 0.18 0.20 0.19 0.25 0.28 0.29 0.33 0.29 0.26 0.23 0.18 0.16 0.16 0.12 0.13 0.07 0.06 0.08 0.12 0.19
0.00 0.00 0.01 0.01 0.05 0.13 0.19 0.24 0.23 0.11 0.09 0.07 0.03 0.11 0.28 0.06 0.01 0.00 0.00 0.00 0.00 0.01 0.03 0.04 0.06 0.11 0.16 0.14 0.20 0.21 0.25 0.20 0.16 0.15 0.18 0.15 0.14 0.15 0.08 0.07 0.10 0.14 0.16 0.15
0.02 0.01 0.01 0.01 0.00 0.00 0.02 0.03 0.10 0.07 0.06 0.01 0.04 0.04 0.05 0.03 0.00 0.00 0.00 0.00 0.00 0.00 0.02 0.12 0.05 0.06 0.08 0.13 0.13 0.17 0.22 0.21 0.15 0.20 0.16 0.16 0.16 0.15 0.20 0.30 0.29 0.23 0.24 0.18
0.08 0.03 0.12 0.04 0.00 0.00 0.04 0.02 0.00 0.02 0.04 0.03 0.03 0.01 0.00 0.00 0.00 0.00 0.00 0.00 0.00 0.00 0.08 0.06 0.01 0.02 0.03 0.05 0.06 0.07 0.14 0.19 0.18 0.16 0.16 0.17 0.18 0.23 0.31 0.34 0.32 0.23 0.14 0.13
0.16 0.08 0.05 0.00 0.00 0.00 0.01 0.01 0.01 0.04 0.05 0.01 0.03 0.02 0.02 0.01 0.02 0.02 0.02 0.01 0.00 0.00 0.00 0.00 0.00 0.00 0.01 0.01 0.00 0.02 0.06 0.11 0.12 0.12 0.19 0.29 0.36 0.38 0.25 0.16 0.14 0.11 0.14 0.13
0.33 0.24 0.09 0.00 0.00 0.00 0.00 0.02 0.01 0.02 0.04 0.01 0.01 0.03 0.06 0.05 0.06 0.06 0.01 0.00 0.00 0.00 0.00 0.00 0.00 0.00 0.00 0.00 0.00 0.01 0.03 0.07 0.08 0.21 0.38 0.43 0.36 0.18 0.11 0.10 0.14 0.14 0.13 0.10
0.34 0.31 0.07 0.00 0.00 0.01 0.11 0.10 0.01 0.02 0.02 0.01 0.01 0.07 0.11 0.05 0.05 0.01 0.00 0.00 0.00 0.00 0.00 0.00 0.00 0.00 0.00 0.00 0.01 0.02 0.06 0.14 0.24 0.26 0.19 0.14 0.16 0.15 0.14 0.18 0.18 0.14 0.10 0.10
0.38 0.38 0.14 0.02 0.12 0.23 0.18 0.04 0.02 0.02 0.00 0.02 0.07 0.08 0.02 0.00 0.00 0.01 0.00 0.00 0.00 0.00 0.00 0.01 0.01 0.01 0.01 0.01 0.02 0.03 0.05 0.05 0.05 0.10 0.13 0.14 0.15 0.17 0.18 0.19 0.18 0.14 0.14 0.16
0.12 0.09 0.10 0.16 0.18 0.19 0.11 0.10 0.08 0.03 0.04 0.09 0.05 0.00 0.00 0.00 0.00 0.00 0.00 0.00 0.00 0.01 0.02 0.02 0.01 0.01 0.02 0.01 0.02 0.01 0.02 0.03 0.05 0.10 0.13 0.16 0.21 0.23 0.24 0.25 0.24 0.25 0.25 0.24
0.20 0.18 0.18 0.37 0.27 0.06 0.05 0.06 0.03 0.03 0.04 0.03 0.02 0.02 0.03 0.02 0.01 0.01 0.01 0.02 0.02 0.02 0.01 0.01 0.01 0.01 0.02 0.02 0.03 0.04 0.03 0.02 0.03 0.09 0.14 0.12 0.15 0.15 0.17 0.20 0.26 0.37 0.46 0.49
0.29 0.32 0.33 0.53 0.54 0.32 0.11 0.03 0.02 0.02 0.01 0.01 0.01 0.02 0.01 0.02 0.01 0.01 0.01 0.01 0.01 0.01 0.01 0.00 0.02 0.02 0.04 0.04 0.04 0.05 0.06 0.07 0.08 0.09 0.10 0.08 0.11 0.22 0.26 0.38 0.55 0.62 0.74 0.84
0.78 0.51 0.49 0.54 0.22 0.15 0.11 0.04 0.01 0.01 0.01 0.02 0.02 0.00 0.01 0.02 0.02 0.01 0.01 0.02 0.02 0.02 0.01 0.02 0.02 0.02 0.02 0.01 0.03 0.07 0.10 0.11 0.18 0.18 0.20 0.21 0.23 0.31 0.42 0.44 0.47 0.49 0.61 0.70
0.34 0.44 0.32 0.25 0.10 0.03 0.02 0.01 0.00 0.01 0.01 0.02 0.03 0.02 0.05 0.04 0.03 0.03 0.03 0.03 0.02 0.03 0.03 0.04 0.04 0.06 0.11 0.16 0.15 0.16 0.18 0.19 0.19 0.20 0.26 0.31 0.37 0.43 0.56 0.77 0.85 0.98 1.09 1.16
0.14 0.11 0.07 0.04 0.04 0.01 0.01 0.01 0.02 0.01 0.01 0.02 0.07 0.08 0.06 0.05 0.04 0.03 0.03 0.02 0.02 0.02 0.03 0.06 0.12 0.24 0.37 0.50 0.60 0.72 0.83 0.94 0.95 1.01 0.99 0.95 0.91 0.91 0.94 0.99 1.09 1.32 1.34 1.19
0.09 0.09 0.09 0.06 0.04 0.03 0.02 0.03 0.04 0.07 0.13 0.17 0.13 0.07 0.04 0.03 0.03 0.03 0.02 0.02 0.02 0.03 0.07 0.12 0.18 0.28 0.38 0.45 0.55 0.66 0.75 0.86 0.90 0.95 0.96 0.93 0.89 0.89 0.87 0.83 0.77 0.77 0.72 0.66
0.02 0.03 0.05 0.06 0.06 0.04 0.04 0.06 0.13 0.29 0.24 0.15 0.08 0.04 0.04 0.04 0.04 0.04 0.05 0.04 0.05 0.09 0.11 0.13 0.19 0.27 0.22 0.21 0.25 0.34 0.50 0.65 0.62 0.68 0.77 0.75 0.75 0.72 0.71 0.68 0.66 0.63 0.59 0.57
0.01 0.01 0.03 0.09 0.12 0.15 0.22 0.28 0.31 0.27 0.16 0.08 0.08 0.07 0.06 0.05 0.05 0.08 0.11 0.12 0.11 0.15 0.16 0.20 0.37 0.41 0.43 0.50 0.55 0.72 0.78 0.84 0.79 0.73 0.74 0.72 0.65 0.58 0.53 0.49 0.47 0.44 0.47 0.45
0.02 0.03 0.06 0.14 0.30 0.32 0.22 0.16 0.13 0.11 0.13 0.15 0.15 0.14 0.16 0.19 0.25 0.30 0.35 0.30 0.25 0.31 0.50 0.68 0.72 0.73 0.74 0.76 0.71 0.72 0.69 0.68 0.62 0.60 0.57 0.52 0.47 0.42 0.43 0.44 0.40 0.36 0.31 0.23
0.12 0.19 0.23 0.25 0.23 0.18 0.15 0.15 0.16 0.17 0.20 0.24 0.28 0.39 0.45 0.53 0.55 0.66 0.69 0.65 0.74 0.76 1.11 0.97 0.82 0.73 0.73 0.71 0.55 0.51 0.48 0.42 0.38 0.38 0.36 0.36 0.34 0.33 0.31 0.27 0.25 0.22 0.22 0.24
0.21 0.17 0.15 0.12 0.10 0.11 0.14 0.21 0.24 0.32 0.45 0.46 0.55 0.70 0.84 1.04 1.02 1.01 0.88 0.89 0.96 1.01 0.94 0.78 0.55 0.44 0.41 0.37 0.28 0.27 0.28 0.29 0.28 0.28 0.25 0.22 0.21 0.20 0.18 0.18 0.23 0.27 0.25 0.22
0.44 0.41 0.41 0.41 0.47 0.54 0.62 0.73 0.68 0.87 1.12 1.07 0.90 0.97 0.97 1.08 1.00 0.93 0.75 0.69 0.82 0.63 0.47 0.39 0.32 0.28 0.21 0.18 0.16 0.16 0.16 0.16 0.18 0.19 0.21 0.21 0.21 0.23 0.29 0.28 0.25 0.24 0.23 0.21
0.62 0.62 0.72 0.75 0.68 0.84 0.96 0.93 0.78 0.79 0.80 0.78 0.76 0.76 0.66 0.75 0.66 0.56 0.52 0.47 0.51 0.38 0.27 0.22 0.19 0.13 0.10 0.10 0.12 0.13 0.13 0.17 0.20 0.21 0.23 0.27 0.31 0.27 0.22 0.20 0.20 0.19 0.19 0.18
0.64 0.60 0.60 0.62 0.57 0.62 0.68 0.64 0.66 0.55 0.56 0.57 0.58 0.58 0.48 0.49 0.45 0.35 0.35 0.34 0.23 0.19 0.15 0.13 0.11 0.07 0.07 0.11 0.12 0.14 0.16 0.21 0.24 0.26 0.26 0.21 0.20 0.20 0.18 0.16 0.15 0.16 0.17 0.17
0.60 0.58 0.60 0.61 0.44 0.30 0.39 0.57 0.44 0.42 0.37 0.36 0.33 0.31 0.23 0.20 0.23 0.18 0.17 0.15 0.10 0.09 0.08 0.08 0.07 0.06 0.08 0.15 0.17 0.19 0.20 0.21 0.16 0.16 0.16 0.16 0.16 0.16 0.16 0.15 0.14 0.13 0.15 0.15
0.53 0.53 0.54 0.49 0.37 0.43 0.39 0.38 0.25 0.24 0.17 0.16 0.15 0.13 0.10 0.09 0.16 0.12 0.06 0.06 0.07 0.10 0.09 0.08 0.09 0.08 0.14 0.16 0.17 0.16 0.16 0.15 0.13 0.16 0.17 0.17 0.16 0.17 0.16 0.16 0.16 0.15 0.15 0.14
0.42 0.40 0.41 0.37 0.35 0.30 0.25 0.16 0.15 0.16 0.10 0.09 0.12 0.11 0.09 0.08 0.07 0.08 0.08 0.08 0.08 0.09 0.14 0.13 0.11 0.10 0.15 0.16 0.16 0.14 0.16 0.15 0.14 0.16 0.18 0.17 0.17 0.16 0.15 0.14 0.14 0.15 0.15 0.16
0.34 0.32 0.24 0.18 0.18 0.16 0.15 0.15 0.13 0.14 0.14 0.13 0.15 0.11 0.11 0.09 0.09 0.10 0.10 0.12 0.12 0.12 0.15 0.15 0.14 0.13 0.15 0.17 0.17 0.16 0.16 0.16 0.15 0.15 0.16 0.17 0.18 0.16 0.16 0.16 0.17 0.16 0.15 0.16

GFSNGP_prec_precacc_093.txt.gz
Total_Precipitation_Accumulation
0.03 0.12 0.21 0.25 0.23 0.23 0.28 0.20 0.21 0.04 0.05 0.08 0.14 0.57 0.58 0.21 0.03 0.01 0.00 0.00 0.02 0.03 0.05 0.13 0.23 0.26 0.26 0.31 0.33 0.35 0.39 0.31 0.29 0.25 0.18 0.16 0.16 0.12 0.13 0.07 0.06 0.08 0.12 0.19
0.00 0.00 0.01 0.01 0.05 0.13 0.19 0.27 0.27 0.12 0.09 0.07 0.05 0.23 0.58 0.32 0.15 0.04 0.00 0.00 0.00 0.01 0.03 0.04 0.06 0.11 0.16 0.14 0.20 0.21 0.26 0.27 0.25 0.22 0.22 0.17 0.16 0.16 0.08 0.07 0.10 0.14 0.16 0.15
0.02 0.01 0.01 0.01 0.00 0.00 0.02 0.04 0.10 0.08 0.06 0.02 0.09 0.16 0.24 0.28 0.18 0.09 0.01 0.01 0.00 0.00 0.02 0.12 0.05 0.06 0.08 0.13 0.13 0.17 0.22 0.23 0.19 0.25 0.22 0.23 0.22 0.19 0.26 0.35 0.31 0.26 0.26 0.18
0.08 0.03 0.12 0.04 0.01 0.00 0.08 0.15 0.03 0.03 0.05 0.04 0.14 0.07 0.02 0.06 0.11 0.14 0.07 0.03 0.01 0.00 0.08 0.06 0.01 0.02 0.03 0.05 0.06 0.07 0.14 0.20 0.20 0.16 0.17 0.20 0.23 0.29 0.38 0.41 0.38 0.27 0.20 0.19
0.16 0.08 0.05 0.00 0.00 0.00 0.03 0.05 0.03 0.08 0.18 0.01 0.04 0.08 0.08 0.08 0.09 0.08 0.07 0.04 0.01 0.00 0.00 0.00 0.00 0.00 0.01 0.01 0.00 0.02 0.06 0.11 0.12 0.13 0.20 0.30 0.38 0.40 0.28 0.19 0.18 0.17 0.22 0.23
0.33 0.24 0.09 0.00 0.00 0.00 0.01 0.04 0.01 0.05 0.30 0.12 0.02 0.04 0.07 0.09 0.16 0.12 0.04 0.00 0.00 0.00 0.00 0.00 0.00 0.00 0.00 0.00 0.00 0.01 0.03 0.07 0.08 0.21 0.38 0.43 0.36 0.21 0.15 0.12 0.15 0.16 0.16 0.16
0.34 0.32 0.07 0.00 0.00 0.01 0.12 0.10 0.01 0.02 0.09 0.20 0.08 0.10 0.12 0.05 0.07 0.05 0.02 0.00 0.00 0.00 0.00 0.00 0.00 0.00 0.00 0.00 0.01 0.02 0.06 0.14 0.24 0.26 0.19 0.14 0.16 0.15 0.15 0.20 0.22 0.22 0.19 0.17
0.39 0.39 0.15 0.02 0.12 0.23 0.18 0.04 0.02 0.02 0.01 0.05 0.09 0.09 0.03 0.00 0.00 0.01 0.00 0.00 0.00 0.00 0.00 0.01 0.01 0.01 0.01 0.01 0.02 0.03 0.05 0.05 0.05 0.10 0.13 0.14 0.15 0.17 0.18 0.19 0.21 0.20 0.21 0.21
0.12 0.09 0.10 0.16 0.18 0.19 0.12 0.11 0.08 0.04 0.05 0.09 0.05 0.00 0.00 0.00 0.00 0.00 0.00 0.00 0.00 0.01 0.02 0.02 0.01 0.01 0.02 0.01 0.02 0.01 0.02 0.03 0.05 0.10 0.13 0.16 0.21 0.23 0.24 0.25 0.25 0.27 0.30 0.32
0.23 0.21 0.19 0.38 0.28 0.08 0.06 0.13 0.11 0.04 0.04 0.03 0.02 0.02 0.03 0.02 0.01 0.01 0.01 0.02 0.02 0.02 0.01 0.01 0.01 0.01 0.02 0.02 0.03 0.04 0.03 0.02 0.03 0.09 0.14 0.12 0.15 0.15 0.17 0.20 0.26 0.37 0.47 0.51
0.55 0.45 0.38 0.57 0.57 0.43 0.27 0.07 0.08 0.07 0.03 0.01 0.01 0.02 0.02 0.02 0.01 0.01 0.01 0.01 0.01 0.01 0.01 0.00 0.02 0.02 0.04 0.04 0.04 0.05 0.06 0.07 0.08 0.09 0.10 0.08 0.12 0.22 0.26 0.39 0.55 0.62 0.74 0.84
1.09 0.76 0.61 0.64 0.28 0.18 0.17 0.08 0.02 0.02 0.02 0.02 0.02 0.00 0.01 0.02 0.02 0.01 0.01 0.02 0.02 0.02 0.01 0.02 0.02 0.02 0.02 0.01 0.03 0.07 0.10 0.11 0.18 0.18 0.20 0.21 0.23 0.31 0.42 0.45 0.48 0.49 0.61 0.70
0.47 0.67 0.58 0.39 0.18 0.06 0.03 0.02 0.00 0.01 0.01 0.02 0.03 0.02 0.05 0.04 0.03 0.03 0.03 0.03 0.02 0.03 0.03 0.04 0.04 0.06 0.11 0.16 0.15 0.16 0.18 0.20 0.20 0.21 0.26 0.31 0.38 0.44 0.57 0.77 0.85 0.99 1.10 1.17
0.25 0.21 0.13 0.10 0.07 0.02 0.01 0.01 0.02 0.01 0.01 0.02 0.07 0.08 0.06 0.05 0.04 0.03 0.03 0.02 0.02 0.02 0.04 0.06 0.12 0.24 0.38 0.50 0.60 0.72 0.84 0.95 0.96 1.02 1.00 0.95 0.92 0.91 0.94 0.99 1.09 1.33 1.35 1.20
0.15 0.11 0.11 0.07 0.04 0.03 0.02 0.03 0.04 0.07 0.13 0.17 0.13 0.07 0.04 0.03 0.04 0.03 0.02 0.02 0.02 0.03 0.07 0.12 0.18 0.29 0.38 0.45 0.55 0.66 0.76 0.86 0.91 0.96 0.97 0.94 0.90 0.89 0.87 0.83 0.77 0.78 0.72 0.67
0.02 0.03 0.05 0.06 0.06 0.04 0.04 0.06 0.13 0.29 0.25 0.15 0.08 0.04 0.04 0.04 0.05 0.05 0.05 0.04 0.05 0.10 0.12 0.13 0.19 0.28 0.23 0.21 0.25 0.34 0.51 0.66 0.62 0.69 0.78 0.76 0.76 0.73 0.72 0.69 0.67 0.64 0.60 0.58
0.01 0.01 0.04 0.09 0.12 0.15 0.22 0.28 0.31 0.27 0.16 0.09 0.09 0.08 0.06 0.05 0.05 0.08 0.11 0.12 0.11 0.16 0.16 0.21 0.38 0.42 0.43 0.50 0.55 0.72 0.78 0.84 0.79 0.74 0.75 0.73 0.67 0.60 0.55 0.51 0.49 0.47 0.50 0.48
0.02 0.03 0.07 0.15 0.31 0.32 0.22 0.16 0.13 0.12 0.14 0.16 0.15 0.14 0.16 0.20 0.26 0.31 0.36 0.31 0.25 0.31 0.51 0.69 0.73 0.73 0.74 0.76 0.71 0.72 0.69 0.68 0.63 0.61 0.58 0.54 0.49 0.45 0.46 0.47 0.43 0.38 0.33 0.25
0.12 0.19 0.23 0.26 0.23 0.18 0.15 0.15 0.17 0.18 0.21 0.24 0.28 0.39 0.45 0.54 0.56 0.67 0.70 0.66 0.74 0.76 1.11 0.98 0.83 0.73 0.73 0.72 0.56 0.51 0.48 0.43 0.38 0.38 0.37 0.37 0.36 0.36 0.33 0.29 0.26 0.23 0.22 0.24
0.21 0.17 0.15 0.13 0.10 0.11 0.15 0.21 0.24 0.32 0.45 0.46 0.55 0.70 0.84 1.04 1.03 1.01 0.89 0.89 0.97 1.02 0.95 0.78 0.55 0.44 0.42 0.37 0.29 0.27 0.28 0.29 0.28 0.28 0.26 0.22 0.21 0.20 0.18 0.18 0.23 0.27 0.25 0.22
0.44 0.41 0.41 0.41 0.48 0.55 0.62 0.73 0.68 0.88 1.13 1.07 0.90 0.98 0.97 1.09 1.01 0.94 0.76 0.69 0.82 0.63 0.47 0.39 0.32 0.28 0.21 0.18 0.16 0.16 0.16 0.16 0.18 0.19 0.21 0.21 0.21 0.23 0.29 0.28 0.25 0.24 0.23 0.21
0.62 0.62 0.72 0.75 0.68 0.84 0.96 0.93 0.78 0.79 0.80 0.78 0.77 0.76 0.66 0.75 0.66 0.56 0.52 0.47 0.51 0.38 0.27 0.22 0.19 0.13 0.10 0.10 0.12 0.13 0.13 0.17 0.20 0.21 0.23 0.27 0.31 0.27 0.22 0.20 0.20 0.19 0.19 0.18
0.64 0.60 0.60 0.62 0.57 0.62 0.68 0.64 0.66 0.55 0.56 0.58 0.58 0.58 0.48 0.49 0.45 0.35 0.35 0.34 0.23 0.19 0.15 0.13 0.11 0.07 0.07 0.11 0.12 0.14 0.16 0.21 0.24 0.26 0.26 0.21 0.20 0.20 0.18 0.16 0.15 0.16 0.17 0.17
0.60 0.58 0.60 0.61 0.44 0.30 0.39 0.57 0.44 0.42 0.37 0.36 0.34 0.31 0.23 0.20 0.23 0.18 0.17 0.15 0.10 0.09 0.08 0.08 0.07 0.06 0.08 0.15 0.17 0.19 0.20 0.21 0.16 0.16 0.16 0.16 0.16 0.16 0.16 0.15 0.14 0.13 0.15 0.15
0.53 0.53 0.54 0.49 0.37 0.43 0.39 0.38 0.26 0.24 0.17 0.16 0.15 0.13 0.10 0.09 0.16 0.12 0.06 0.06 0.07 0.10 0.09 0.08 0.09 0.08 0.14 0.16 0.17 0.16 0.16 0.15 0.13 0.16 0.17 0.17 0.16 0.17 0.16 0.16 0.16 0.15 0.15 0.14
0.42 0.40 0.42 0.38 0.36 0.31 0.26 0.17 0.16 0.16 0.10 0.09 0.12 0.11 0.09 0.08 0.07 0.08 0.08 0.08 0.08 0.09 0.14 0.13 0.11 0.10 0.15 0.16 0.16 0.14 0.16 0.15 0.14 0.16 0.18 0.17 0.17 0.16 0.15 0.14 0.14 0.15 0.15 0.16
0.35 0.33 0.25 0.19 0.18 0.17 0.15 0.15 0.13 0.14 0.14 0.13 0.15 0.11 0.11 0.09 0.09 0.10 0.10 0.12 0.12 0.12 0.15 0.15 0.14 0.13 0.15 0.17 0.17 0.16 0.16 0.16 0.15 0.15 0.16 0.17 0.18 0.16 0.16 0.16 0.17 0.16 0.15 0.16

GFSNGP_prec_precacc_099.txt.gz
Total_Precipitation_Accumulation
0.03 0.12 0.21 0.25 0.23 0.24 0.30 0.21 0.27 0.04 0.05 0.09 0.14 0.58 0.63 0.30 0.20 0.26 0.27 0.13 0.13 0.16 0.20 0.26 0.33 0.37 0.38 0.44 0.48 0.49 0.53 0.41 0.34 0.27 0.20 0.16 0.16 0.12 0.13 0.07 0.06 0.08 0.12 0.19
0.00 0.00 0.01 0.01 0.05 0.13 0.19 0.27 0.27 0.13 0.10 0.07 0.07 0.26 0.60 0.39 0.37 0.29 0.13 0.02 0.01 0.03 0.07 0.11 0.14 0.20 0.21 0.19 0.24 0.24 0.30 0.32 0.31 0.25 0.25 0.18 0.16 0.17 0.08 0.07 0.10 0.14 0.16 0.15
0.02 0.01 0.01 0.01 0.00 0.00 0.02 0.04 0.11 0.10 0.06 0.02 0.14 0.22 0.30 0.36 0.40 0.33 0.31 0.11 0.02 0.00 0.02 0.12 0.08 0.12 0.13 0.16 0.15 0.19 0.25 0.27 0.23 0.29 0.26 0.25 0.23 0.20 0.28 0.36 0.31 0.26 0.26 0.18
0.08 0.03 0.12 0.04 0.01 0.00 0.08 0.15 0.05 0.05 0.05 0.05 0.20 0.18 0.14 0.25 0.52 0.42 0.34 0.45 0.26 0.08 0.10 0.06 0.02 0.07 0.17 0.21 0.17 0.15 0.19 0.23 0.21 0.18 0.20 0.23 0.26 0.31 0.41 0.43 0.39 0.28 0.23 0.25
0.16 0.08 0.05 0.00 0.00 0.00 0.03 0.05 0.04 0.12 0.25 0.23 0.30 0.43 0.47 0.63 0.66 0.65 0.45 0.31 0.32 0.21 0.12 0.03 0.01 0.01 0.04 0.11 0.07 0.10 0.12 0.13 0.12 0.13 0.20 0.31 0.39 0.42 0.32 0.24 0.22 0.22 0.28 0.31
0.33 0.24 0.09 0.00 0.00 0.00 0.01 0.04 0.01 0.11 0.44 0.44 0.37 0.34 0.38 0.51 0.83 0.62 0.32 0.18 0.13 0.10 0.07 0.03 0.01 0.01 0.00 0.00 0.00 0.01 0.03 0.07 0.08 0.21 0.38 0.43 0.36 0.21 0.16 0.13 0.17 0.22 0.26 0.27
0.34 0.33 0.07 0.00 0.00 0.01 0.12 0.10 0.01 0.05 0.20 0.59 0.70 0.84 0.78 0.62 0.60 0.30 0.21 0.09 0.02 0.01 0.01 0.00 0.01 0.01 0.01 0.00 0.01 0.02 0.06 0.14 0.24 0.26 0.19 0.14 0.16 0.15 0.15 0.20 0.22 0.23 0.24 0.23
0.39 0.40 0.15 0.02 0.12 0.23 0.18 0.04 0.03 0.03 0.03 0.12 0.40 0.39 0.27 0.39 0.36 0.20 0.04 0.00 0.00 0.00 0.00 0.01 0.01 0.01 0.01 0.02 0.02 0.03 0.05 0.05 0.05 0.10 0.13 0.14 0.15 0.17 0.18 0.19 0.21 0.20 0.22 0.24
0.13 0.12 0.13 0.16 0.18 0.19 0.12 0.12 0.10 0.07 0.13 0.25 0.25 0.24 0.29 0.16 0.04 0.00 0.00 0.00 0.00 0.01 0.02 0.02 0.01 0.01 0.02 0.01 0.02 0.01 0.02 0.03 0.05 0.10 0.13 0.16 0.21 0.23 0.24 0.25 0.25 0.27 0.30 0.32
0.42 0.49 0.31 0.43 0.32 0.10 0.09 0.18 0.19 0.13 0.09 0.10 0.08 0.08 0.10 0.06 0.01 0.01 0.01 0.02 0.02 0.02 0.01 0.01 0.01 0.01 0.02 0.02 0.03 0.04 0.03 0.02 0.03 0.09 0.14 0.12 0.15 0.15 0.17 0.20 0.26 0.37 0.47 0.52
0.84 0.70 0.56 0.68 0.69 0.54 0.38 0.16 0.14 0.17 0.14 0.10 0.08 0.08 0.07 0.06 0.04 0.02 0.01 0.01 0.01 0.01 0.01 0.00 0.02 0.02 0.04 0.04 0.04 0.05 0.06 0.07 0.08 0.09 0.10 0.08 0.12 0.24 0.27 0.41 0.56 0.62 0.75 0.85
1.24 0.99 0.84 0.83 0.47 0.34 0.29 0.25 0.14 0.06 0.04 0.02 0.02 0.01 0.01 0.02 0.02 0.01 0.01 0.02 0.02 0.02 0.01 0.02 0.02 0.03 0.02 0.01 0.03 0.07 0.10 0.11 0.18 0.18 0.20 0.21 0.23 0.31 0.44 0.47 0.48 0.50 0.62 0.71
0.58 0.90 0.87 0.70 0.43 0.24 0.14 0.08 0.03 0.01 0.01 0.02 0.03 0.02 0.05 0.04 0.03 0.04 0.03 0.03 0.02 0.03 0.04 0.04 0.04 0.06 0.12 0.16 0.15 0.16 0.19 0.20 0.20 0.21 0.27 0.31 0.38 0.44 0.57 0.78 0.86 1.00 1.11 1.19
0.37 0.44 0.32 0.20 0.13 0.05 0.02 0.01 0.02 0.01 0.01 0.02 0.07 0.08 0.06 0.05 0.05 0.03 0.04 0.02 0.02 0.02 0.04 0.06 0.12 0.25 0.39 0.51 0.60 0.72 0.84 0.96 0.96 1.02 1.01 0.96 0.92 0.91 0.95 0.99 1.10 1.34 1.36 1.22
0.19 0.16 0.16 0.10 0.04 0.03 0.02 0.03 0.04 0.07 0.13 0.17 0.13 0.07 0.04 0.04 0.04 0.04 0.03 0.02 0.02 0.03 0.07 0.12 0.18 0.30 0.39 0.46 0.56 0.67 0.76 0.87 0.92 0.97 0.98 0.94 0.90 0.90 0.87 0.84 0.78 0.79 0.73 0.67
0.02 0.04 0.05 0.06 0.06 0.04 0.04 0.06 0.13 0.29 0.25 0.15 0.08 0.04 0.04 0.05 0.05 0.05 0.06 0.05 0.05 0.11 0.13 0.14 0.20 0.30 0.24 0.22 0.26 0.35 0.51 0.66 0.63 0.69 0.78 0.76 0.76 0.74 0.73 0.70 0.68 0.65 0.60 0.60
0.01 0.02 0.04 0.10 0.12 0.15 0.22 0.29 0.31 0.27 0.17 0.09 0.09 0.08 0.06 0.05 0.06 0.08 0.12 0.13 0.12 0.16 0.17 0.21 0.40 0.43 0.44 0.51 0.56 0.73 0.79 0.85 0.80 0.75 0.76 0.74 0.68 0.61 0.56 0.52 0.49 0.47 0.51 0.49
0.02 0.03 0.07 0.15 0.31 0.32 0.22 0.16 0.13 0.12 0.14 0.16 0.16 0.14 0.17 0.20 0.26 0.31 0.37 0.31 0.26 0.31 0.51 0.70 0.75 0.74 0.75 0.77 0.72 0.73 0.70 0.69 0.64 0.62 0.60 0.55 0.51 0.46 0.47 0.48 0.44 0.39 0.34 0.25
0.12 0.19 0.23 0.26 0.23 0.18 0.15 0.15 0.17 0.18 0.21 0.24 0.28 0.39 0.45 0.54 0.56 0.67 0.70 0.66 0.74 0.76 1.12 0.98 0.84 0.74 0.74 0.73 0.57 0.53 0.49 0.44 0.40 0.40 0.39 0.39 0.37 0.36 0.34 0.29 0.26 0.23 0.22 0.24
0.21 0.17 0.15 0.13 0.10 0.11 0.15 0.21 0.24 0.32 0.45 0.46 0.55 0.70 0.84 1.05 1.03 1.02 0.89 0.89 0.98 1.03 0.95 0.78 0.55 0.44 0.42 0.37 0.29 0.27 0.28 0.30 0.28 0.28 0.26 0.22 0.21 0.20 0.18 0.18 0.23 0.27 0.25 0.22
0.44 0.41 0.41 0.41 0.48 0.55 0.62 0.73 0.68 0.88 1.13 1.07 0.90 0.98 0.97 1.09 1.01 0.94 0.76 0.69 0.82 0.63 0.47 0.39 0.32 0.28 0.21 0.18 0.16 0.16 0.16 0.16 0.18 0.19 0.21 0.21 0.21 0.23 0.29 0.28 0.25 0.24 0.23 0.21
0.62 0.62 0.72 0.75 0.68 0.84 0.96 0.93 0.78 0.79 0.80 0.78 0.77 0.76 0.66 0.75 0.66 0.56 0.52 0.47 0.51 0.38 0.27 0.22 0.19 0.13 0.10 0.10 0.12 0.13 0.13 0.17 0.20 0.21 0.23 0.27 0.31 0.27 0.22 0.20 0.20 0.19 0.19 0.18
0.64 0.60 0.60 0.62 0.57 0.63 0.68 0.65 0.67 0.55 0.56 0.58 0.58 0.58 0.48 0.49 0.45 0.35 0.35 0.34 0.23 0.19 0.15 0.13 0.11 0.07 0.07 0.11 0.12 0.14 0.16 0.21 0.24 0.26 0.26 0.21 0.20 0.20 0.18 0.16 0.15 0.16 0.17 0.17
0.60 0.58 0.60 0.61 0.44 0.30 0.39 0.57 0.44 0.42 0.37 0.36 0.34 0.31 0.23 0.20 0.23 0.19 0.17 0.15 0.10 0.09 0.08 0.08 0.07 0.06 0.08 0.15 0.17 0.19 0.20 0.21 0.16 0.16 0.16 0.16 0.16 0.16 0.16 0.15 0.14 0.13 0.15 0.15
0.53 0.53 0.54 0.49 0.37 0.43 0.39 0.38 0.26 0.24 0.17 0.16 0.15 0.13 0.10 0.09 0.16 0.12 0.06 0.06 0.07 0.10 0.09 0.08 0.09 0.08 0.14 0.16 0.17 0.16 0.16 0.15 0.13 0.16 0.17 0.17 0.16 0.17 0.16 0.16 0.16 0.15 0.15 0.14
0.42 0.40 0.42 0.38 0.36 0.31 0.26 0.18 0.16 0.16 0.10 0.09 0.12 0.11 0.09 0.08 0.07 0.08 0.08 0.08 0.08 0.09 0.14 0.13 0.11 0.10 0.15 0.16 0.16 0.14 0.16 0.15 0.14 0.16 0.18 0.17 0.17 0.16 0.15 0.14 0.14 0.15 0.16 0.16
0.35 0.33 0.25 0.19 0.19 0.17 0.16 0.16 0.15 0.16 0.15 0.13 0.15 0.11 0.11 0.09 0.09 0.10 0.10 0.12 0.12 0.12 0.15 0.15 0.14 0.13 0.15 0.17 0.17 0.16 0.16 0.16 0.15 0.15 0.16 0.17 0.18 0.16 0.16 0.16 0.17 0.16 0.16 0.16

GFSNGP_prec_precacc_102.txt.gz
Total_Precipitation_Accumulation
0.03 0.12 0.21 0.25 0.23 0.24 0.30 0.21 0.27 0.04 0.05 0.09 0.14 0.58 0.63 0.31 0.21 0.29 0.59 0.43 0.31 0.28 0.24 0.28 0.36 0.41 0.43 0.49 0.52 0.55 0.68 0.52 0.39 0.28 0.20 0.16 0.16 0.12 0.13 0.07 0.06 0.08 0.12 0.19
0.00 0.00 0.01 0.01 0.05 0.13 0.19 0.27 0.27 0.13 0.10 0.07 0.07 0.26 0.64 0.45 0.39 0.30 0.45 0.70 0.41 0.22 0.17 0.17 0.20 0.26 0.28 0.27 0.37 0.35 0.37 0.37 0.32 0.28 0.26 0.19 0.16 0.17 0.08 0.07 0.10 0.14 0.16 0.16
0.02 0.01 0.01 0.01 0.00 0.00 0.02 0.04 0.11 0.10 0.07 0.03 0.14 0.25 0.35 0.45 0.45 0.36 0.41 0.53 0.33 0.15 0.11 0.21 0.16 0.20 0.22 0.26 0.24 0.27 0.29 0.28 0.24 0.32 0.30 0.30 0.27 0.21 0.28 0.36 0.32 0.26 0.26 0.18
0.08 0.03 0.12 0.04 0.01 0.00 0.08 0.15 0.06 0.07 0.07 0.05 0.22 0.28 0.30 0.34 0.62 0.53 0.54 0.69 0.63 0.31 0.18 0.14 0.06 0.09 0.22 0.31 0.25 0.17 0.20 0.24 0.24 0.21 0.22 0.25 0.29 0.34 0.45 0.45 0.39 0.29 0.23 0.25
0.16 0.08 0.05 0.00 0.00 0.00 0.03 0.05 0.04 0.13 0.34 0.25 0.36 0.55 0.71 0.91 0.98 0.93 0.69 0.49 0.53 0.54 0.34 0.14 0.10 0.05 0.06 0.17 0.25 0.17 0.17 0.21 0.23 0.22 0.25 0.33 0.40 0.43 0.33 0.25 0.23 0.24 0.30 0.33
0.33 0.24 0.09 0.00 0.00 0.00 0.01 0.04 0.02 0.12 0.59 0.53 0.50 0.43 0.53 0.73 1.16 0.92 0.56 0.29 0.22 0.21 0.22 0.22 0.13 0.05 0.03 0.02 0.06 0.13 0.14 0.14 0.13 0.27 0.42 0.44 0.37 0.22 0.16 0.14 0.18 0.23 0.27 0.29
0.34 0.33 0.07 0.00 0.00 0.01 0.12 0.11 0.02 0.05 0.21 0.63 0.81 0.95 0.95 0.89 0.92 0.64 0.43 0.15 0.03 0.01 0.01 0.02 0.06 0.10 0.06 0.02 0.02 0.03 0.09 0.17 0.26 0.27 0.20 0.14 0.16 0.15 0.15 0.20 0.22 0.23 0.24 0.23
0.39 0.40 0.16 0.03 0.12 0.23 0.19 0.05 0.03 0.03 0.04 0.13 0.42 0.49 0.39 0.60 0.56 0.41 0.16 0.01 0.00 0.00 0.00 0.01 0.01 0.01 0.02 0.04 0.05 0.04 0.06 0.05 0.05 0.10 0.13 0.14 0.15 0.17 0.18 0.19 0.21 0.20 0.22 0.24
0.16 0.16 0.20 0.18 0.19 0.20 0.12 0.14 0.13 0.08 0.14 0.26 0.30 0.28 0.36 0.30 0.13 0.04 0.02 0.01 0.00 0.01 0.02 0.02 0.01 0.01 0.02 0.01 0.02 0.02 0.03 0.04 0.06 0.10 0.13 0.16 0.21 0.23 0.24 0.25 0.25 0.27 0.30 0.32
0.46 0.53 0.34 0.46 0.35 0.11 0.11 0.20 0.21 0.15 0.11 0.11 0.10 0.11 0.15 0.13 0.06 0.03 0.02 0.02 0.02 0.02 0.01 0.01 0.01 0.01 0.02 0.02 0.03 0.04 0.03 0.03 0.03 0.09 0.14 0.12 0.15 0.15 0.18 0.20 0.27 0.37 0.47 0.52
0.87 0.72 0.59 0.69 0.71 0.56 0.39 0.17 0.15 0.17 0.14 0.11 0.08 0.08 0.07 0.06 0.05 0.02 0.01 0.01 0.01 0.01 0.01 0.00 0.02 0.02 0.04 0.04 0.04 0.05 0.06 0.07 0.08 0.09 0.10 0.09 0.12 0.24 0.28 0.41 0.56 0.62 0.75 0.85
1.26 1.01 0.86 0.86 0.50 0.35 0.30 0.27 0.15 0.07 0.04 0.03 0.02 0.01 0.01 0.02 0.02 0.01 0.01 0.02 0.02 0.02 0.01 0.02 0.02 0.03 0.02 0.01 0.03 0.07 0.10 0.11 0.18 0.18 0.20 0.21 0.23 0.32 0.45 0.47 0.49 0.50 0.62 0.72
0.59 0.92 0.88 0.72 0.46 0.26 0.16 0.09 0.03 0.01 0.01 0.02 0.03 0.02 0.05 0.04 0.03 0.04 0.03 0.03 0.03 0.03 0.04 0.04 0.04 0.06 0.12 0.16 0.15 0.16 0.19 0.20 0.20 0.21 0.27 0.31 0.38 0.44 0.58 0.78 0.86 1.00 1.11 1.19
0.40 0.47 0.34 0.22 0.14 0.06 0.02 0.01 0.02 0.01 0.01 0.02 0.07 0.08 0.06 0.05 0.05 0.03 0.04 0.02 0.02 0.02 0.04 0.06 0.12 0.25 0.39 0.51 0.60 0.72 0.85 0.96 0.97 1.03 1.01 0.96 0.92 0.92 0.95 1.00 1.10 1.34 1.37 1.23
0.22 0.19 0.19 0.12 0.04 0.03 0.02 0.03 0.04 0.07 0.13 0.17 0.13 0.07 0.04 0.04 0.04 0.04 0.03 0.02 0.02 0.03 0.07 0.12 0.18 0.30 0.39 0.46 0.56 0.67 0.76 0.87 0.92 0.97 0.99 0.95 0.91 0.90 0.88 0.84 0.78 0.79 0.74 0.68
0.03 0.05 0.09 0.09 0.06 0.04 0.04 0.06 0.13 0.29 0.25 0.15 0.08 0.04 0.04 0.05 0.05 0.05 0.06 0.05 0.06 0.11 0.13 0.14 0.20 0.31 0.24 0.22 0.26 0.35 0.52 0.67 0.63 0.70 0.79 0.77 0.77 0.74 0.73 0.70 0.68 0.65 0.61 0.61
0.01 0.02 0.04 0.10 0.13 0.15 0.22 0.29 0.31 0.27 0.17 0.09 0.09 0.08 0.06 0.05 0.06 0.09 0.12 0.13 0.12 0.17 0.17 0.22 0.41 0.44 0.45 0.51 0.56 0.73 0.79 0.85 0.80 0.75 0.76 0.75 0.68 0.61 0.56 0.52 0.50 0.47 0.52 0.50
0.02 0.03 0.07 0.15 0.31 0.32 0.22 0.16 0.13 0.12 0.14 0.16 0.16 0.14 0.17 0.20 0.26 0.31 0.37 0.31 0.26 0.31 0.51 0.70 0.75 0.74 0.75 0.77 0.72 0.73 0.70 0.70 0.64 0.62 0.60 0.56 0.51 0.46 0.47 0.48 0.44 0.39 0.34 0.25
0.12 0.19 0.23 0.26 0.23 0.18 0.15 0.15 0.17 0.18 0.21 0.24 0.28 0.39 0.45 0.54 0.56 0.67 0.70 0.66 0.74 0.76 1.12 0.98 0.84 0.74 0.74 0.73 0.57 0.53 0.49 0.44 0.40 0.41 0.39 0.39 0.38 0.37 0.34 0.29 0.26 0.23 0.22 0.24
0.21 0.17 0.15 0.13 0.10 0.11 0.15 0.21 0.24 0.32 0.45 0.46 0.55 0.70 0.84 1.05 1.03 1.02 0.89 0.90 0.98 1.03 0.96 0.78 0.55 0.44 0.42 0.37 0.29 0.27 0.28 0.30 0.29 0.29 0.26 0.23 0.21 0.20 0.18 0.18 0.23 0.27 0.25 0.22
0.44 0.41 0.41 0.41 0.48 0.55 0.62 0.73 0.68 0.88 1.13 1.07 0.90 0.98 0.97 1.09 1.01 0.94 0.76 0.69 0.83 0.63 0.47 0.39 0.32 0.28 0.21 0.18 0.16 0.16 0.16 0.17 0.18 0.19 0.21 0.22 0.21 0.23 0.29 0.28 0.25 0.24 0.24 0.22
0.62 0.62 0.72 0.75 0.68 0.84 0.96 0.93 0.78 0.79 0.80 0.78 0.77 0.76 0.66 0.75 0.66 0.56 0.52 0.47 0.51 0.38 0.27 0.22 0.19 0.13 0.10 0.10 0.12 0.13 0.13 0.17 0.20 0.21 0.24 0.27 0.31 0.27 0.23 0.20 0.20 0.20 0.20 0.19
0.64 0.60 0.60 0.62 0.57 0.63 0.68 0.65 0.67 0.55 0.56 0.58 0.58 0.58 0.48 0.49 0.45 0.35 0.35 0.34 0.23 0.19 0.15 0.13 0.11 0.07 0.07 0.11 0.12 0.14 0.16 0.21 0.24 0.26 0.26 0.21 0.21 0.20 0.19 0.16 0.15 0.16 0.17 0.17
0.60 0.58 0.60 0.61 0.44 0.30 0.39 0.57 0.44 0.42 0.37 0.36 0.34 0.31 0.23 0.20 0.24 0.19 0.17 0.15 0.10 0.09 0.08 0.08 0.07 0.06 0.08 0.15 0.17 0.19 0.20 0.21 0.16 0.16 0.16 0.16 0.16 0.16 0.17 0.15 0.14 0.14 0.15 0.15
0.53 0.53 0.54 0.49 0.37 0.43 0.39 0.38 0.26 0.24 0.17 0.16 0.15 0.13 0.10 0.09 0.16 0.13 0.06 0.06 0.07 0.10 0.09 0.08 0.09 0.08 0.14 0.16 0.17 0.16 0.16 0.16 0.13 0.16 0.17 0.17 0.16 0.17 0.16 0.16 0.16 0.16 0.16 0.14
0.42 0.40 0.42 0.38 0.36 0.31 0.26 0.18 0.17 0.17 0.11 0.10 0.12 0.11 0.10 0.08 0.07 0.08 0.08 0.09 0.08 0.09 0.14 0.13 0.11 0.10 0.15 0.16 0.16 0.14 0.16 0.15 0.14 0.16 0.18 0.17 0.17 0.16 0.15 0.14 0.14 0.15 0.16 0.16
0.35 0.33 0.25 0.20 0.19 0.17 0.16 0.16 0.15 0.16 0.15 0.13 0.15 0.11 0.11 0.09 0.09 0.10 0.11 0.12 0.12 0.12 0.15 0.15 0.14 0.14 0.15 0.17 0.17 0.16 0.17 0.16 0.16 0.15 0.17 0.17 0.18 0.17 0.16 0.16 0.17 0.17 0.16 0.16

GFSNGP_prec_precacc_105.txt.gz
Total_Precipitation_Accumulation
0.05 0.12 0.22 0.27 0.24 0.24 0.30 0.21 0.27 0.05 0.06 0.09 0.15 0.58 0.64 0.32 0.22 0.29 0.59 0.43 0.37 0.35 0.32 0.34 0.41 0.45 0.47 0.53 0.55 0.58 0.73 0.61 0.49 0.37 0.26 0.18 0.16 0.12 0.13 0.07 0.06 0.08 0.12 0.19
0.00 0.00 0.02 0.01 0.05 0.13 0.19 0.27 0.27 0.13 0.12 0.07 0.07 0.26 0.64 0.47 0.44 0.32 0.45 0.71 0.58 0.48 0.37 0.28 0.28 0.32 0.34 0.33 0.44 0.43 0.44 0.42 0.37 0.31 0.29 0.21 0.17 0.17 0.08 0.07 0.10 0.15 0.16 0.16
0.02 0.01 0.01 0.01 0.00 0.00 0.02 0.04 0.12 0.12 0.10 0.03 0.14 0.25 0.36 0.48 0.54 0.42 0.44 0.59 0.69 0.72 0.54 0.39 0.29 0.31 0.30 0.34 0.31 0.36 0.39 0.37 0.29 0.35 0.31 0.31 0.28 0.22 0.28 0.37 0.32 0.27 0.26 0.19
0.08 0.03 0.12 0.04 0.01 0.00 0.08 0.15 0.06 0.07 0.08 0.12 0.22 0.29 0.31 0.40 0.71 0.62 0.61 0.78 0.82 0.79 0.66 0.51 0.29 0.25 0.39 0.45 0.41 0.31 0.33 0.36 0.30 0.23 0.23 0.27 0.30 0.36 0.47 0.45 0.40 0.29 0.24 0.26
0.16 0.08 0.05 0.02 0.00 0.00 0.03 0.06 0.04 0.14 0.38 0.35 0.41 0.57 0.71 0.96 1.12 1.09 0.83 0.60 0.65 0.81 0.87 0.54 0.46 0.27 0.22 0.34 0.49 0.51 0.43 0.40 0.35 0.28 0.27 0.36 0.46 0.47 0.37 0.29 0.26 0.25 0.31 0.36
0.33 0.24 0.10 0.03 0.01 0.00 0.01 0.06 0.02 0.12 0.60 0.58 0.58 0.47 0.55 0.77 1.26 1.09 0.69 0.37 0.29 0.26 0.38 0.66 0.51 0.32 0.26 0.21 0.21 0.34 0.49 0.33 0.26 0.39 0.58 0.61 0.52 0.36 0.32 0.31 0.30 0.29 0.30 0.31
0.34 0.33 0.08 0.00 0.00 0.01 0.14 0.14 0.02 0.05 0.21 0.63 0.81 0.96 0.96 0.93 1.03 0.80 0.57 0.19 0.06 0.03 0.02 0.05 0.25 0.37 0.27 0.19 0.22 0.24 0.26 0.33 0.33 0.34 0.30 0.25 0.29 0.31 0.32 0.36 0.39 0.38 0.34 0.30
0.40 0.41 0.18 0.03 0.12 0.24 0.20 0.06 0.04 0.04 0.04 0.13 0.43 0.50 0.41 0.63 0.61 0.47 0.28 0.05 0.00 0.00 0.00 0.01 0.01 0.04 0.13 0.16 0.16 0.19 0.19 0.13 0.12 0.16 0.17 0.18 0.17 0.18 0.20 0.22 0.23 0.21 0.24 0.26
0.16 0.18 0.22 0.19 0.20 0.21 0.13 0.15 0.14 0.09 0.15 0.27 0.30 0.29 0.36 0.32 0.16 0.06 0.04 0.02 0.01 0.01 0.02 0.02 0.01 0.01 0.02 0.02 0.04 0.04 0.05 0.08 0.11 0.13 0.15 0.17 0.23 0.24 0.24 0.26 0.25 0.27 0.30 0.32
0.48 0.54 0.35 0.46 0.35 0.12 0.11 0.21 0.22 0.15 0.11 0.11 0.10 0.11 0.15 0.13 0.06 0.03 0.02 0.02 0.02 0.02 0.01 0.01 0.01 0.01 0.02 0.02 0.03 0.04 0.04 0.03 0.04 0.11 0.17 0.14 0.16 0.16 0.18 0.20 0.27 0.38 0.47 0.52
0.89 0.74 0.60 0.70 0.72 0.57 0.40 0.18 0.15 0.17 0.14 0.11 0.08 0.08 0.07 0.06 0.05 0.02 0.01 0.01 0.01 0.01 0.01 0.00 0.02 0.02 0.04 0.04 0.04 0.05 0.06 0.07 0.08 0.09 0.10 0.09 0.13 0.25 0.28 0.42 0.57 0.63 0.76 0.86
1.28 1.02 0.88 0.87 0.50 0.36 0.30 0.27 0.15 0.07 0.04 0.03 0.02 0.01 0.01 0.02 0.02 0.01 0.01 0.02 0.02 0.02 0.01 0.02 0.02 0.03 0.02 0.01 0.03 0.07 0.10 0.11 0.19 0.18 0.20 0.21 0.23 0.32 0.45 0.48 0.49 0.50 0.62 0.72
0.59 0.92 0.88 0.73 0.47 0.26 0.17 0.09 0.03 0.01 0.01 0.02 0.03 0.02 0.05 0.04 0.03 0.04 0.03 0.03 0.03 0.03 0.04 0.04 0.04 0.06 0.12 0.16 0.15 0.17 0.19 0.21 0.20 0.21 0.27 0.32 0.38 0.44 0.58 0.79 0.86 1.01 1.11 1.19
0.40 0.47 0.36 0.23 0.15 0.07 0.02 0.01 0.02 0.01 0.01 0.02 0.07 0.08 0.06 0.05 0.05 0.03 0.04 0.02 0.02 0.02 0.04 0.06 0.12 0.26 0.40 0.51 0.60 0.73 0.85 0.97 0.97 1.04 1.02 0.97 0.93 0.92 0.96 1.00 1.10 1.35 1.37 1.23
0.22 0.19 0.20 0.14 0.05 0.03 0.02 0.03 0.04 0.07 0.13 0.17 0.13 0.07 0.04 0.04 0.04 0.04 0.03 0.02 0.02 0.03 0.07 0.12 0.19 0.31 0.40 0.47 0.56 0.67 0.77 0.88 0.93 0.98 1.00 0.95 0.91 0.91 0.89 0.85 0.79 0.80 0.75 0.68
0.03 0.05 0.09 0.09 0.07 0.04 0.04 0.06 0.13 0.29 0.25 0.15 0.08 0.04 0.04 0.05 0.05 0.05 0.06 0.05 0.06 0.11 0.13 0.14 0.20 0.31 0.25 0.22 0.26 0.35 0.52 0.67 0.64 0.71 0.79 0.77 0.77 0.75 0.74 0.71 0.69 0.66 0.61 0.62
0.01 0.02 0.04 0.10 0.13 0.15 0.22 0.29 0.31 0.27 0.17 0.09 0.09 0.08 0.06 0.05 0.06 0.09 0.12 0.13 0.12 0.17 0.18 0.22 0.41 0.44 0.45 0.51 0.57 0.73 0.80 0.86 0.81 0.75 0.77 0.75 0.69 0.62 0.57 0.53 0.50 0.48 0.52 0.50
0.02 0.03 0.07 0.15 0.31 0.32 0.22 0.16 0.13 0.12 0.14 0.16 0.16 0.14 0.17 0.20 0.27 0.32 0.37 0.31 0.26 0.31 0.51 0.70 0.75 0.75 0.76 0.78 0.73 0.74 0.71 0.70 0.65 0.63 0.60 0.56 0.52 0.47 0.48 0.49 0.45 0.40 0.34 0.25
0.12 0.19 0.23 0.26 0.23 0.18 0.15 0.15 0.17 0.18 0.21 0.24 0.28 0.39 0.45 0.54 0.56 0.67 0.70 0.66 0.74 0.76 1.12 0.98 0.84 0.74 0.74 0.73 0.57 0.53 0.50 0.45 0.41 0.41 0.40 0.40 0.38 0.37 0.35 0.29 0.26 0.23 0.22 0.24
0.21 0.17 0.15 0.13 0.10 0.11 0.15 0.21 0.24 0.32 0.45 0.46 0.55 0.70 0.84 1.05 1.03 1.02 0.89 0.90 0.98 1.03 0.96 0.78 0.55 0.44 0.42 0.37 0.29 0.27 0.29 0.31 0.29 0.29 0.26 0.23 0.22 0.20 0.18 0.18 0.23 0.27 0.25 0.23
0.44 0.41 0.41 0.41 0.48 0.55 0.62 0.73 0.68 0.88 1.13 1.07 0.90 0.98 0.97 1.09 1.01 0.94 0.76 0.69 0.83 0.63 0.47 0.39 0.32 0.28 0.21 0.18 0.16 0.16 0.16 0.17 0.18 0.19 0.21 0.22 0.21 0.23 0.29 0.28 0.25 0.24 0.24 0.22
0.62 0.62 0.72 0.75 0.68 0.84 0.96 0.93 0.78 0.79 0.80 0.78 0.77 0.76 0.66 0.75 0.66 0.56 0.52 0.47 0.51 0.38 0.27 0.22 0.19 0.13 0.10 0.10 0.12 0.13 0.13 0.17 0.20 0.21 0.24 0.28 0.31 0.28 0.23 0.20 0.20 0.20 0.20 0.19
0.64 0.60 0.60 0.62 0.57 0.63 0.68 0.65 0.67 0.55 0.56 0.58 0.58 0.58 0.48 0.49 0.45 0.35 0.35 0.34 0.23 0.19 0.15 0.13 0.11 0.07 0.07 0.11 0.12 0.14 0.17 0.21 0.24 0.26 0.26 0.22 0.21 0.20 0.19 0.16 0.16 0.17 0.17 0.17
0.60 0.58 0.60 0.61 0.44 0.30 0.39 0.57 0.44 0.42 0.37 0.36 0.34 0.31 0.23 0.20 0.24 0.19 0.17 0.15 0.10 0.09 0.08 0.08 0.07 0.06 0.08 0.15 0.17 0.19 0.21 0.21 0.16 0.16 0.17 0.16 0.16 0.16 0.17 0.16 0.14 0.14 0.15 0.15
0.53 0.53 0.54 0.49 0.37 0.44 0.39 0.38 0.26 0.25 0.17 0.16 0.15 0.13 0.10 0.09 0.16 0.13 0.07 0.06 0.07 0.10 0.10 0.08 0.09 0.08 0.14 0.16 0.17 0.16 0.16 0.16 0.14 0.16 0.18 0.17 0.17 0.17 0.16 0.16 0.16 0.16 0.16 0.14
0.42 0.40 0.42 0.38 0.36 0.32 0.27 0.18 0.17 0.17 0.11 0.10 0.12 0.11 0.10 0.08 0.08 0.08 0.08 0.09 0.09 0.09 0.14 0.14 0.11 0.10 0.15 0.16 0.16 0.15 0.16 0.15 0.14 0.16 0.18 0.18 0.17 0.16 0.16 0.14 0.15 0.15 0.16 0.16
0.35 0.34 0.26 0.20 0.19 0.18 0.16 0.17 0.16 0.16 0.16 0.14 0.16 0.12 0.11 0.10 0.09 0.10 0.11 0.12 0.13 0.13 0.16 0.16 0.15 0.14 0.15 0.17 0.17 0.17 0.17 0.17 0.16 0.16 0.17 0.18 0.18 0.17 0.16 0.17 0.17 0.17 0.16 0.16

GFSNGP_prec_precacc_108.txt.gz
Total_Precipitation_Accumulation
0.14 0.15 0.23 0.33 0.30 0.27 0.33 0.23 0.28 0.07 0.09 0.09 0.15 0.58 0.64 0.33 0.23 0.30 0.59 0.43 0.37 0.35 0.32 0.37 0.45 0.50 0.53 0.59 0.61 0.62 0.78 0.67 0.52 0.41 0.29 0.24 0.22 0.15 0.16 0.07 0.06 0.08 0.12 0.20
0.16 0.08 0.04 0.05 0.07 0.13 0.19 0.27 0.30 0.18 0.21 0.08 0.07 0.26 0.64 0.47 0.45 0.32 0.45 0.71 0.58 0.48 0.38 0.37 0.37 0.41 0.42 0.41 0.50 0.50 0.52 0.50 0.46 0.39 0.34 0.27 0.21 0.20 0.09 0.07 0.11 0.15 0.16 0.16
0.02 0.01 0.01 0.02 0.00 0.01 0.03 0.04 0.12 0.13 0.12 0.04 0.15 0.25 0.37 0.49 0.55 0.45 0.46 0.61 0.71 0.76 0.68 0.68 0.58 0.53 0.42 0.43 0.40 0.44 0.47 0.46 0.39 0.44 0.37 0.36 0.31 0.23 0.29 0.37 0.33 0.27 0.27 0.19
0.09 0.03 0.16 0.07 0.01 0.00 0.09 0.15 0.06 0.08 0.09 0.14 0.25 0.30 0.32 0.42 0.74 0.65 0.65 0.82 0.87 0.87 0.85 0.85 0.70 0.60 0.61 0.58 0.51 0.41 0.44 0.46 0.41 0.33 0.32 0.33 0.33 0.38 0.48 0.46 0.41 0.30 0.24 0.26
0.16 0.08 0.07 0.04 0.00 0.00 0.06 0.08 0.04 0.14 0.39 0.36 0.44 0.58 0.72 0.97 1.14 1.14 0.88 0.65 0.69 0.87 0.97 0.72 0.72 0.55 0.54 0.51 0.64 0.66 0.59 0.59 0.55 0.46 0.43 0.49 0.53 0.50 0.39 0.32 0.27 0.26 0.32 0.36
0.33 0.25 0.16 0.10 0.01 0.00 0.01 0.09 0.02 0.12 0.60 0.58 0.58 0.49 0.56 0.78 1.29 1.14 0.73 0.39 0.29 0.27 0.40 0.73 0.71 0.55 0.53 0.54 0.45 0.55 0.72 0.64 0.75 0.86 0.93 0.94 0.81 0.56 0.44 0.43 0.45 0.42 0.38 0.36
0.34 0.36 0.09 0.01 0.00 0.01 0.17 0.21 0.03 0.05 0.21 0.63 0.82 0.98 0.99 0.95 1.07 0.84 0.61 0.19 0.06 0.03 0.02 0.05 0.29 0.48 0.42 0.41 0.51 0.48 0.50 0.75 0.77 0.79 0.74 0.64 0.73 0.64 0.60 0.70 0.72 0.75 0.74 0.57
0.42 0.44 0.20 0.03 0.12 0.25 0.23 0.08 0.05 0.04 0.04 0.13 0.43 0.51 0.42 0.65 0.63 0.48 0.29 0.06 0.00 0.00 0.00 0.01 0.01 0.05 0.18 0.26 0.29 0.33 0.38 0.35 0.41 0.47 0.47 0.48 0.43 0.41 0.38 0.39 0.41 0.41 0.47 0.56
0.17 0.19 0.23 0.19 0.20 0.22 0.13 0.16 0.15 0.10 0.15 0.27 0.31 0.29 0.37 0.32 0.16 0.06 0.04 0.02 0.01 0.01 0.02 0.02 0.01 0.01 0.02 0.04 0.09 0.12 0.14 0.18 0.24 0.29 0.38 0.39 0.37 0.33 0.31 0.29 0.28 0.29 0.33 0.36
0.50 0.56 0.35 0.46 0.35 0.12 0.11 0.21 0.22 0.16 0.11 0.11 0.10 0.11 0.15 0.13 0.06 0.03 0.02 0.02 0.02 0.02 0.01 0.01 0.01 0.01 0.02 0.02 0.03 0.05 0.06 0.06 0.08 0.15 0.21 0.20 0.26 0.28 0.29 0.27 0.31 0.39 0.48 0.52
0.90 0.75 0.61 0.70 0.72 0.57 0.40 0.18 0.15 0.17 0.14 0.11 0.08 0.08 0.07 0.06 0.05 0.02 0.01 0.01 0.01 0.01 0.01 0.00 0.02 0.02 0.04 0.04 0.04 0.05 0.06 0.08 0.09 0.09 0.11 0.10 0.15 0.27 0.32 0.47 0.62 0.68 0.81 0.90
1.31 1.03 0.90 0.87 0.50 0.36 0.30 0.27 0.15 0.07 0.04 0.03 0.02 0.01 0.01 0.02 0.02 0.01 0.01 0.02 0.02 0.02 0.01 0.02 0.02 0.03 0.02 0.02 0.03 0.07 0.10 0.12 0.19 0.19 0.20 0.21 0.23 0.32 0.46 0.49 0.50 0.51 0.63 0.73
0.59 0.92 0.88 0.73 0.47 0.26 0.17 0.09 0.03 0.01 0.01 0.02 0.03 0.02 0.05 0.04 0.03 0.04 0.03 0.03 0.03 0.03 0.04 0.04 0.05 0.07 0.13 0.17 0.16 0.17 0.19 0.21 0.21 0.22 0.28 0.32 0.39 0.45 0.59 0.79 0.86 1.01 1.12 1.20
0.40 0.47 0.36 0.23 0.15 0.07 0.02 0.01 0.02 0.01 0.01 0.02 0.07 0.08 0.06 0.05 0.05 0.03 0.04 0.02 0.02 0.02 0.04 0.06 0.13 0.26 0.40 0.53 0.61 0.73 0.86 0.97 0.98 1.05 1.03 0.98 0.94 0.93 0.97 1.01 1.11 1.35 1.37 1.23
0.22 0.19 0.20 0.14 0.05 0.03 0.02 0.03 0.04 0.07 0.13 0.17 0.13 0.07 0.04 0.04 0.04 0.04 0.03 0.02 0.02 0.03 0.07 0.12 0.19 0.31 0.40 0.47 0.58 0.68 0.77 0.89 0.94 0.98 1.00 0.96 0.92 0.91 0.89 0.85 0.79 0.81 0.76 0.69
0.03 0.05 0.09 0.09 0.07 0.04 0.04 0.06 0.13 0.29 0.25 0.15 0.08 0.04 0.04 0.05 0.05 0.05 0.06 0.05 0.06 0.11 0.13 0.15 0.21 0.32 0.25 0.22 0.27 0.36 0.53 0.67 0.64 0.72 0.80 0.78 0.78 0.75 0.75 0.71 0.69 0.66 0.62 0.63
0.01 0.02 0.04 0.10 0.13 0.15 0.22 0.29 0.31 0.27 0.17 0.09 0.09 0.08 0.06 0.05 0.06 0.09 0.12 0.13 0.13 0.17 0.18 0.22 0.42 0.44 0.45 0.52 0.58 0.75 0.81 0.86 0.82 0.76 0.78 0.76 0.70 0.63 0.58 0.54 0.51 0.48 0.53 0.50
0.02 0.03 0.07 0.15 0.31 0.32 0.22 0.16 0.13 0.12 0.14 0.16 0.16 0.14 0.17 0.20 0.27 0.32 0.37 0.31 0.26 0.31 0.51 0.70 0.75 0.75 0.76 0.78 0.74 0.75 0.72 0.71 0.66 0.63 0.61 0.57 0.53 0.48 0.49 0.50 0.46 0.40 0.35 0.25
0.12 0.19 0.23 0.26 0.23 0.18 0.15 0.15 0.17 0.18 0.21 0.24 0.28 0.39 0.45 0.54 0.56 0.67 0.70 0.66 0.74 0.76 1.12 0.98 0.84 0.74 0.74 0.73 0.57 0.53 0.51 0.46 0.41 0.42 0.41 0.41 0.39 0.38 0.36 0.30 0.27 0.23 0.23 0.24
0.21 0.17 0.15 0.13 0.10 0.11 0.15 0.21 0.24 0.32 0.45 0.46 0.55 0.70 0.84 1.05 1.03 1.02 0.89 0.90 0.98 1.03 0.96 0.78 0.55 0.44 0.42 0.37 0.29 0.27 0.29 0.31 0.29 0.29 0.27 0.24 0.22 0.21 0.19 0.19 0.23 0.27 0.25 0.23
0.44 0.41 0.41 0.41 0.48 0.55 0.62 0.73 0.68 0.88 1.13 1.07 0.90 0.98 0.97 1.09 1.01 0.94 0.76 0.71 0.83 0.63 0.47 0.39 0.32 0.28 0.21 0.18 0.16 0.16 0.16 0.17 0.19 0.20 0.22 0.23 0.22 0.24 0.29 0.29 0.25 0.24 0.24 0.22
0.62 0.62 0.72 0.75 0.68 0.84 0.96 0.93 0.78 0.79 0.80 0.78 0.77 0.76 0.66 0.75 0.66 0.56 0.52 0.47 0.51 0.38 0.27 0.22 0.19 0.13 0.10 0.10 0.12 0.13 0.13 0.17 0.20 0.21 0.24 0.28 0.31 0.28 0.23 0.20 0.21 0.20 0.20 0.19
0.64 0.60 0.60 0.62 0.57 0.63 0.68 0.65 0.67 0.55 0.56 0.58 0.58 0.58 0.48 0.49 0.45 0.35 0.36 0.35 0.23 0.19 0.15 0.14 0.11 0.07 0.07 0.11 0.12 0.14 0.17 0.22 0.24 0.27 0.26 0.22 0.21 0.21 0.19 0.17 0.16 0.17 0.18 0.17
0.60 0.58 0.61 0.61 0.45 0.31 0.40 0.57 0.45 0.42 0.37 0.36 0.34 0.31 0.23 0.20 0.25 0.19 0.17 0.15 0.10 0.09 0.08 0.08 0.07 0.06 0.09 0.16 0.17 0.20 0.21 0.22 0.17 0.17 0.17 0.16 0.16 0.16 0.17 0.16 0.14 0.14 0.15 0.15
0.53 0.53 0.54 0.49 0.37 0.44 0.39 0.38 0.26 0.25 0.17 0.16 0.15 0.13 0.10 0.09 0.16 0.13 0.07 0.06 0.07 0.10 0.11 0.09 0.09 0.08 0.14 0.17 0.18 0.16 0.17 0.16 0.14 0.17 0.18 0.18 0.17 0.18 0.16 0.16 0.16 0.16 0.16 0.14
0.42 0.40 0.42 0.38 0.37 0.32 0.27 0.18 0.17 0.17 0.11 0.10 0.13 0.12 0.10 0.09 0.08 0.09 0.09 0.09 0.09 0.09 0.15 0.14 0.12 0.11 0.16 0.16 0.16 0.15 0.16 0.16 0.15 0.16 0.18 0.18 0.17 0.17 0.16 0.15 0.15 0.15 0.16 0.16
0.35 0.34 0.26 0.20 0.19 0.18 0.16 0.17 0.16 0.17 0.16 0.15 0.16 0.13 0.12 0.10 0.10 0.11 0.11 0.13 0.13 0.13 0.16 0.16 0.15 0.15 0.16 0.17 0.18 0.17 0.17 0.17 0.16 0.16 0.17 0.18 0.18 0.17 0.16 0.17 0.17 0.17 0.16 0.16

GFSNGP_prec_precacc_114.txt.gz
Total_Precipitation_Accumulation
0.24 0.31 0.37 0.75 0.68 0.72 0.65 0.45 0.52 0.52 0.25 0.18 0.17 0.60 0.65 0.34 0.23 0.31 0.60 0.43 0.37 0.35 0.32 0.37 0.45 0.52 0.56 0.63 0.66 0.67 0.84 0.72 0.57 0.48 0.49 0.52 0.44 0.33 0.31 0.22 0.16 0.14 0.15 0.21
0.91 0.52 0.16 0.35 0.26 0.28 0.34 0.45 0.53 0.31 0.31 0.18 0.11 0.27 0.64 0.48 0.46 0.34 0.47 0.73 0.59 0.48 0.38 0.37 0.37 0.43 0.47 0.46 0.56 0.56 0.58 0.56 0.56 0.50 0.56 0.58 0.44 0.45 0.27 0.19 0.17 0.19 0.20 0.18
0.29 0.30 0.07 0.24 0.14 0.04 0.07 0.10 0.16 0.18 0.21 0.10 0.16 0.26 0.39 0.51 0.57 0.47 0.49 0.64 0.74 0.78 0.70 0.70 0.60 0.58 0.55 0.57 0.52 0.54 0.54 0.52 0.46 0.57 0.59 0.64 0.58 0.48 0.50 0.51 0.39 0.31 0.30 0.21
0.15 0.07 0.37 0.54 0.09 0.01 0.10 0.17 0.08 0.10 0.13 0.17 0.28 0.33 0.33 0.45 0.78 0.69 0.69 0.86 0.90 0.89 0.86 0.86 0.73 0.68 0.77 0.80 0.79 0.68 0.62 0.57 0.50 0.50 0.62 0.76 0.71 0.69 0.75 0.66 0.48 0.33 0.26 0.27
0.22 0.16 0.25 0.08 0.01 0.01 0.09 0.11 0.06 0.16 0.41 0.39 0.47 0.59 0.73 0.99 1.18 1.19 0.92 0.67 0.70 0.88 0.98 0.72 0.74 0.68 0.73 0.74 0.91 0.97 0.94 0.86 0.80 0.68 0.76 0.88 1.00 0.94 0.80 0.70 0.56 0.40 0.38 0.40
0.34 0.28 0.25 0.12 0.01 0.00 0.02 0.12 0.05 0.13 0.62 0.60 0.60 0.50 0.59 0.81 1.31 1.17 0.76 0.39 0.29 0.27 0.40 0.73 0.71 0.56 0.58 0.66 0.61 0.83 1.07 1.08 1.16 1.27 1.37 1.41 1.28 1.19 1.12 0.94 0.88 0.77 0.62 0.54
0.36 0.38 0.11 0.01 0.00 0.01 0.19 0.28 0.07 0.06 0.22 0.64 0.83 1.00 1.02 0.97 1.08 0.85 0.61 0.19 0.06 0.03 0.02 0.05 0.29 0.48 0.43 0.45 0.62 0.65 0.71 1.02 1.08 1.23 1.30 1.20 1.32 1.33 1.48 1.63 1.52 1.39 1.26 1.02
0.42 0.45 0.21 0.03 0.13 0.29 0.29 0.12 0.08 0.06 0.05 0.14 0.44 0.52 0.42 0.66 0.64 0.48 0.29 0.06 0.00 0.00 0.00 0.01 0.01 0.05 0.18 0.27 0.33 0.43 0.50 0.46 0.58 0.67 0.69 0.89 0.91 1.00 1.09 1.08 1.14 1.18 1.09 1.11
0.18 0.21 0.27 0.21 0.23 0.26 0.14 0.17 0.15 0.10 0.15 0.27 0.31 0.29 0.37 0.32 0.16 0.06 0.04 0.02 0.01 0.01 0.02 0.02 0.01 0.01 0.03 0.05 0.09 0.13 0.17 0.24 0.30 0.37 0.50 0.55 0.62 0.71 0.68 0.70 0.67 0.67 0.70 0.72
0.52 0.60 0.37 0.47 0.36 0.13 0.11 0.21 0.22 0.16 0.11 0.11 0.10 0.11 0.15 0.13 0.06 0.03 0.02 0.02 0.02 0.02 0.01 0.01 0.01 0.01 0.03 0.03 0.04 0.05 0.07 0.08 0.10 0.18 0.26 0.27 0.35 0.42 0.51 0.57 0.62 0.70 0.74 0.75
0.92 0.77 0.61 0.71 0.72 0.57 0.40 0.18 0.15 0.17 0.14 0.11 0.08 0.08 0.07 0.06 0.05 0.02 0.01 0.01 0.01 0.01 0.01 0.00 0.02 0.02 0.04 0.05 0.04 0.06 0.06 0.09 0.10 0.09 0.11 0.12 0.18 0.32 0.39 0.59 0.74 0.84 1.01 1.10
1.32 1.04 0.90 0.89 0.50 0.36 0.30 0.27 0.15 0.07 0.04 0.03 0.02 0.01 0.01 0.02 0.02 0.01 0.01 0.02 0.02 0.02 0.01 0.02 0.02 0.03 0.03 0.02 0.03 0.07 0.10 0.12 0.20 0.21 0.21 0.21 0.24 0.33 0.47 0.51 0.52 0.55 0.68 0.80
0.60 0.92 0.88 0.73 0.47 0.26 0.17 0.09 0.03 0.01 0.01 0.02 0.03 0.02 0.05 0.04 0.03 0.04 0.03 0.03 0.03 0.03 0.04 0.04 0.05 0.07 0.13 0.17 0.16 0.17 0.20 0.22 0.21 0.22 0.29 0.34 0.40 0.45 0.60 0.80 0.87 1.01 1.13 1.21
0.40 0.47 0.37 0.23 0.15 0.07 0.02 0.01 0.02 0.01 0.01 0.02 0.07 0.08 0.06 0.05 0.05 0.03 0.04 0.02 0.02 0.02 0.04 0.06 0.13 0.26 0.40 0.54 0.62 0.74 0.87 0.98 0.99 1.06 1.04 0.98 0.94 0.94 0.97 1.02 1.11 1.36 1.38 1.24
0.22 0.19 0.20 0.14 0.05 0.03 0.02 0.03 0.04 0.07 0.13 0.17 0.13 0.07 0.04 0.04 0.04 0.04 0.03 0.02 0.02 0.03 0.07 0.12 0.19 0.31 0.40 0.47 0.60 0.70 0.77 0.90 0.95 0.99 1.01 0.97 0.93 0.92 0.90 0.86 0.80 0.83 0.78 0.71
0.03 0.05 0.09 0.09 0.07 0.04 0.04 0.06 0.13 0.29 0.25 0.15 0.08 0.04 0.04 0.05 0.05 0.05 0.06 0.05 0.06 0.11 0.13 0.15 0.21 0.32 0.25 0.22 0.28 0.38 0.53 0.68 0.65 0.72 0.81 0.78 0.78 0.76 0.75 0.71 0.69 0.67 0.62 0.65
0.01 0.02 0.04 0.10 0.13 0.15 0.22 0.29 0.31 0.27 0.17 0.09 0.09 0.08 0.06 0.05 0.06 0.09 0.12 0.14 0.13 0.17 0.18 0.22 0.42 0.44 0.45 0.52 0.58 0.76 0.82 0.87 0.82 0.76 0.78 0.77 0.71 0.63 0.58 0.54 0.51 0.49 0.54 0.51
0.02 0.03 0.07 0.15 0.31 0.32 0.22 0.16 0.13 0.12 0.14 0.16 0.16 0.14 0.17 0.20 0.27 0.32 0.37 0.31 0.26 0.31 0.51 0.70 0.75 0.75 0.76 0.78 0.74 0.75 0.72 0.72 0.66 0.64 0.61 0.57 0.54 0.49 0.50 0.50 0.46 0.41 0.35 0.26
0.12 0.19 0.23 0.26 0.23 0.18 0.15 0.15 0.17 0.18 0.21 0.24 0.28 0.39 0.45 0.54 0.56 0.67 0.70 0.66 0.74 0.76 1.12 0.98 0.84 0.74 0.74 0.73 0.57 0.53 0.51 0.46 0.41 0.42 0.42 0.41 0.39 0.39 0.37 0.31 0.27 0.23 0.23 0.24
0.21 0.17 0.15 0.13 0.10 0.11 0.15 0.21 0.24 0.32 0.45 0.46 0.55 0.70 0.84 1.05 1.03 1.02 0.89 0.91 0.98 1.03 0.96 0.78 0.55 0.44 0.42 0.37 0.29 0.27 0.29 0.31 0.30 0.30 0.27 0.24 0.23 0.21 0.19 0.19 0.24 0.27 0.25 0.23
0.44 0.41 0.41 0.41 0.48 0.55 0.62 0.73 0.68 0.88 1.13 1.07 0.90 0.98 0.97 1.09 1.01 0.94 0.76 0.72 0.83 0.63 0.47 0.39 0.32 0.28 0.21 0.18 0.16 0.16 0.16 0.17 0.19 0.20 0.22 0.24 0.23 0.24 0.29 0.29 0.25 0.24 0.25 0.23
0.62 0.62 0.72 0.75 0.68 0.84 0.96 0.93 0.78 0.79 0.80 0.78 0.77 0.76 0.66 0.75 0.66 0.56 0.52 0.47 0.51 0.38 0.27 0.22 0.19 0.13 0.10 0.10 0.12 0.13 0.13 0.17 0.20 0.21 0.24 0.28 0.32 0.29 0.24 0.21 0.21 0.21 0.20 0.20
0.64 0.60 0.60 0.62 0.57 0.63 0.68 0.65 0.67 0.55 0.56 0.58 0.58 0.58 0.48 0.49 0.46 0.35 0.37 0.35 0.23 0.19 0.15 0.14 0.11 0.07 0.07 0.11 0.12 0.14 0.17 0.22 0.24 0.27 0.26 0.22 0.21 0.21 0.20 0.17 0.16 0.17 0.18 0.17
0.60 0.58 0.61 0.61 0.45 0.31 0.40 0.57 0.45 0.42 0.37 0.36 0.34 0.31 0.23 0.20 0.26 0.20 0.17 0.15 0.10 0.09 0.08 0.08 0.07 0.06 0.09 0.16 0.17 0.20 0.21 0.22 0.17 0.17 0.17 0.16 0.16 0.16 0.17 0.16 0.14 0.14 0.15 0.15
0.53 0.53 0.54 0.49 0.38 0.44 0.39 0.38 0.26 0.25 0.17 0.16 0.15 0.13 0.10 0.09 0.16 0.13 0.07 0.06 0.07 0.10 0.12 0.09 0.09 0.08 0.14 0.17 0.18 0.16 0.17 0.16 0.14 0.17 0.18 0.18 0.17 0.18 0.17 0.16 0.16 0.16 0.16 0.14
0.42 0.40 0.42 0.38 0.37 0.32 0.27 0.18 0.17 0.17 0.11 0.12 0.16 0.14 0.11 0.09 0.08 0.09 0.09 0.09 0.09 0.09 0.15 0.14 0.12 0.11 0.16 0.16 0.16 0.15 0.17 0.16 0.15 0.17 0.18 0.18 0.18 0.17 0.16 0.15 0.15 0.15 0.16 0.17
0.36 0.34 0.26 0.20 0.19 0.18 0.16 0.17 0.16 0.17 0.16 0.15 0.17 0.14 0.12 0.10 0.10 0.11 0.11 0.13 0.14 0.13 0.16 0.16 0.15 0.15 0.16 0.17 0.18 0.17 0.17 0.17 0.16 0.16 0.17 0.18 0.19 0.18 0.17 0.17 0.17 0.17 0.16 0.16

GFSNGP_prec_precacc_117.txt.gz
Total_Precipitation_Accumulation
0.44 0.52 0.43 0.80 0.76 0.94 0.74 0.53 0.62 0.67 0.34 0.30 0.24 0.63 0.70 0.39 0.29 0.32 0.60 0.43 0.37 0.35 0.32 0.37 0.45 0.52 0.56 0.63 0.66 0.68 0.84 0.72 0.57 0.49 0.51 0.57 0.54 0.43 0.40 0.34 0.29 0.26 0.24 0.26
1.20 0.70 0.20 0.56 0.65 0.56 0.47 0.54 0.61 0.34 0.35 0.25 0.16 0.31 0.67 0.51 0.49 0.35 0.47 0.73 0.59 0.48 0.38 0.37 0.37 0.43 0.47 0.46 0.56 0.57 0.59 0.57 0.56 0.51 0.57 0.59 0.47 0.48 0.32 0.28 0.32 0.37 0.33 0.27
0.39 0.38 0.10 0.35 0.38 0.16 0.14 0.16 0.20 0.19 0.25 0.17 0.19 0.28 0.41 0.53 0.58 0.48 0.49 0.64 0.74 0.78 0.70 0.70 0.60 0.58 0.55 0.57 0.52 0.54 0.55 0.53 0.47 0.57 0.60 0.65 0.62 0.59 0.62 0.67 0.64 0.54 0.46 0.30
0.17 0.09 0.41 0.72 0.19 0.04 0.11 0.21 0.12 0.14 0.18 0.21 0.29 0.36 0.36 0.47 0.79 0.70 0.69 0.86 0.90 0.89 0.86 0.86 0.73 0.68 0.77 0.80 0.79 0.68 0.63 0.59 0.52 0.51 0.64 0.78 0.75 0.75 0.94 0.93 0.76 0.63 0.52 0.38
0.25 0.18 0.31 0.15 0.03 0.02 0.09 0.14 0.10 0.19 0.45 0.42 0.50 0.60 0.74 1.00 1.19 1.19 0.92 0.67 0.70 0.88 0.98 0.72 0.74 0.68 0.73 0.74 0.91 0.97 0.94 0.90 0.86 0.72 0.79 0.91 1.08 1.12 0.96 0.90 0.90 0.75 0.60 0.57
0.38 0.30 0.26 0.14 0.01 0.00 0.02 0.14 0.07 0.16 0.63 0.61 0.61 0.51 0.60 0.81 1.31 1.17 0.76 0.39 0.29 0.27 0.40 0.73 0.71 0.56 0.58 0.66 0.61 0.83 1.07 1.10 1.21 1.33 1.47 1.57 1.50 1.38 1.46 1.44 1.31 1.23 1.12 0.90
0.36 0.38 0.11 0.01 0.02 0.03 0.20 0.31 0.10 0.07 0.22 0.64 0.83 1.00 1.03 0.97 1.08 0.85 0.61 0.19 0.06 0.03 0.02 0.05 0.29 0.48 0.43 0.45 0.62 0.66 0.71 1.02 1.09 1.27 1.37 1.31 1.48 1.57 1.71 1.93 2.02 1.80 1.60 1.28
0.42 0.45 0.22 0.03 0.13 0.29 0.31 0.13 0.09 0.07 0.05 0.14 0.44 0.52 0.42 0.66 0.64 0.48 0.29 0.06 0.00 0.00 0.00 0.01 0.01 0.05 0.18 0.28 0.34 0.43 0.50 0.46 0.58 0.67 0.70 0.91 0.94 1.03 1.14 1.18 1.31 1.40 1.38 1.41
0.18 0.22 0.29 0.22 0.25 0.26 0.14 0.17 0.15 0.10 0.15 0.27 0.31 0.29 0.37 0.32 0.16 0.06 0.04 0.02 0.01 0.01 0.02 0.02 0.01 0.01 0.03 0.06 0.10 0.13 0.17 0.24 0.30 0.37 0.50 0.55 0.63 0.71 0.69 0.72 0.72 0.76 0.82 0.89
0.52 0.62 0.38 0.48 0.36 0.13 0.11 0.21 0.22 0.16 0.11 0.11 0.10 0.11 0.15 0.13 0.06 0.03 0.02 0.02 0.02 0.02 0.01 0.01 0.01 0.01 0.03 0.03 0.04 0.05 0.07 0.08 0.10 0.18 0.26 0.27 0.35 0.42 0.51 0.57 0.63 0.71 0.75 0.78
0.93 0.78 0.62 0.72 0.72 0.57 0.40 0.18 0.15 0.17 0.14 0.11 0.08 0.08 0.07 0.06 0.05 0.02 0.01 0.01 0.01 0.01 0.01 0.00 0.02 0.02 0.04 0.05 0.04 0.06 0.06 0.09 0.10 0.09 0.11 0.12 0.18 0.33 0.40 0.61 0.75 0.85 1.02 1.11
1.32 1.04 0.91 0.89 0.50 0.36 0.30 0.27 0.15 0.07 0.04 0.03 0.02 0.01 0.01 0.02 0.02 0.01 0.01 0.02 0.02 0.02 0.01 0.02 0.02 0.03 0.03 0.02 0.04 0.07 0.10 0.12 0.20 0.21 0.21 0.21 0.24 0.33 0.47 0.52 0.53 0.56 0.69 0.81
0.60 0.92 0.88 0.73 0.47 0.26 0.17 0.09 0.03 0.01 0.01 0.02 0.03 0.02 0.05 0.04 0.03 0.04 0.03 0.03 0.03 0.03 0.04 0.04 0.05 0.07 0.13 0.17 0.16 0.18 0.20 0.22 0.21 0.22 0.29 0.35 0.40 0.45 0.60 0.80 0.87 1.02 1.13 1.22
0.40 0.47 0.37 0.23 0.15 0.07 0.02 0.01 0.02 0.01 0.01 0.02 0.07 0.08 0.06 0.05 0.05 0.03 0.04 0.02 0.02 0.02 0.04 0.06 0.13 0.26 0.40 0.54 0.62 0.74 0.87 0.98 0.99 1.06 1.04 0.98 0.95 0.94 0.97 1.02 1.11 1.37 1.39 1.25
0.22 0.19 0.20 0.14 0.05 0.03 0.02 0.03 0.04 0.07 0.13 0.17 0.13 0.07 0.04 0.04 0.04 0.04 0.03 0.02 0.02 0.03 0.07 0.12 0.19 0.31 0.40 0.47 0.60 0.70 0.77 0.90 0.95 0.99 1.02 0.97 0.93 0.92 0.90 0.86 0.80 0.83 0.78 0.71
0.03 0.05 0.09 0.09 0.07 0.04 0.04 0.06 0.13 0.29 0.25 0.15 0.08 0.04 0.04 0.05 0.05 0.05 0.06 0.05 0.06 0.11 0.13 0.15 0.21 0.32 0.25 0.22 0.28 0.38 0.53 0.68 0.65 0.72 0.81 0.78 0.78 0.76 0.75 0.71 0.69 0.67 0.62 0.65
0.01 0.02 0.04 0.10 0.13 0.15 0.22 0.29 0.31 0.27 0.17 0.09 0.09 0.08 0.06 0.05 0.06 0.09 0.12 0.14 0.13 0.17 0.18 0.22 0.42 0.44 0.45 0.52 0.58 0.76 0.83 0.87 0.82 0.76 0.78 0.77 0.71 0.63 0.58 0.54 0.51 0.49 0.54 0.51
0.02 0.03 0.07 0.15 0.31 0.32 0.22 0.16 0.13 0.12 0.14 0.16 0.16 0.14 0.17 0.20 0.27 0.32 0.37 0.31 0.26 0.31 0.51 0.70 0.75 0.75 0.76 0.78 0.74 0.75 0.73 0.72 0.66 0.64 0.61 0.57 0.54 0.49 0.50 0.50 0.46 0.41 0.35 0.26
0.12 0.19 0.23 0.26 0.23 0.18 0.15 0.15 0.17 0.18 0.21 0.24 0.28 0.39 0.45 0.54 0.56 0.67 0.70 0.66 0.74 0.76 1.12 0.98 0.84 0.74 0.74 0.73 0.57 0.53 0.51 0.46 0.41 0.43 0.43 0.41 0.39 0.39 0.37 0.31 0.27 0.23 0.23 0.24
0.21 0.17 0.15 0.13 0.10 0.11 0.15 0.21 0.24 0.32 0.45 0.46 0.55 0.70 0.84 1.05 1.03 1.02 0.89 0.91 0.98 1.03 0.96 0.78 0.55 0.44 0.42 0.37 0.29 0.27 0.29 0.31 0.30 0.30 0.28 0.25 0.23 0.21 0.19 0.19 0.24 0.27 0.25 0.23
0.44 0.41 0.41 0.41 0.48 0.55 0.62 0.73 0.68 0.88 1.13 1.07 0.90 0.98 0.97 1.09 1.01 0.94 0.76 0.72 0.83 0.63 0.47 0.39 0.32 0.28 0.21 0.18 0.16 0.16 0.16 0.17 0.19 0.20 0.23 0.25 0.24 0.24 0.29 0.29 0.26 0.25 0.25 0.23
0.62 0.62 0.72 0.75 0.68 0.84 0.96 0.93 0.78 0.79 0.80 0.78 0.77 0.76 0.66 0.75 0.66 0.56 0.52 0.47 0.51 0.38 0.27 0.22 0.19 0.13 0.10 0.10 0.12 0.13 0.13 0.17 0.20 0.21 0.24 0.28 0.32 0.29 0.25 0.21 0.21 0.21 0.21 0.20
0.64 0.60 0.60 0.62 0.57 0.63 0.68 0.65 0.67 0.55 0.56 0.58 0.58 0.58 0.48 0.49 0.46 0.35 0.37 0.35 0.23 0.19 0.15 0.14 0.11 0.07 0.07 0.11 0.12 0.14 0.17 0.22 0.24 0.27 0.26 0.22 0.21 0.21 0.20 0.17 0.16 0.17 0.18 0.18
0.60 0.58 0.61 0.61 0.45 0.31 0.40 0.57 0.45 0.42 0.37 0.36 0.34 0.31 0.23 0.20 0.26 0.20 0.17 0.15 0.10 0.09 0.08 0.08 0.07 0.06 0.09 0.16 0.17 0.20 0.21 0.22 0.17 0.17 0.17 0.16 0.16 0.17 0.17 0.16 0.14 0.14 0.15 0.16
0.53 0.53 0.54 0.49 0.38 0.44 0.39 0.38 0.26 0.25 0.17 0.16 0.15 0.13 0.10 0.09 0.16 0.13 0.07 0.06 0.07 0.10 0.12 0.09 0.09 0.08 0.14 0.17 0.18 0.16 0.17 0.16 0.14 0.17 0.18 0.18 0.17 0.18 0.17 0.16 0.16 0.16 0.16 0.14
0.42 0.40 0.42 0.38 0.37 0.32 0.27 0.18 0.17 0.17 0.11 0.12 0.16 0.14 0.11 0.09 0.08 0.09 0.09 0.09 0.09 0.09 0.15 0.14 0.12 0.11 0.16 0.16 0.16 0.15 0.17 0.16 0.15 0.17 0.18 0.18 0.18 0.17 0.16 0.15 0.15 0.15 0.16 0.17
0.36 0.34 0.26 0.20 0.19 0.18 0.16 0.17 0.16 0.17 0.16 0.15 0.17 0.14 0.12 0.10 0.10 0.11 0.11 0.13 0.14 0.13 0.16 0.16 0.15 0.15 0.16 0.17 0.18 0.17 0.17 0.17 0.16 0.16 0.17 0.18 0.19 0.18 0.17 0.17 0.17 0.17 0.16 0.16

GFSNGP_prec_precacc_120.txt.gz
Total_Precipitation_Accumulation
0.48 0.62 0.48 0.88 0.90 0.98 0.75 0.58 0.67 0.80 0.45 0.41 0.33 0.72 0.76 0.45 0.37 0.36 0.62 0.47 0.38 0.35 0.33 0.37 0.45 0.52 0.56 0.63 0.66 0.68 0.84 0.72 0.57 0.49 0.52 0.58 0.58 0.48 0.47 0.41 0.38 0.34 0.31 0.34
1.25 0.81 0.27 0.67 0.89 0.76 0.53 0.62 0.66 0.38 0.39 0.32 0.22 0.37 0.72 0.56 0.52 0.36 0.47 0.73 0.59 0.49 0.38 0.37 0.37 0.43 0.47 0.46 0.56 0.57 0.59 0.57 0.56 0.51 0.57 0.59 0.47 0.49 0.34 0.30 0.36 0.47 0.55 0.50
0.43 0.39 0.11 0.41 0.63 0.35 0.23 0.20 0.21 0.19 0.27 0.20 0.22 0.32 0.46 0.57 0.62 0.49 0.49 0.64 0.75 0.79 0.71 0.71 0.60 0.58 0.56 0.57 0.52 0.54 0.55 0.53 0.47 0.57 0.60 0.65 0.62 0.59 0.62 0.68 0.66 0.57 0.55 0.51
0.22 0.11 0.44 0.80 0.28 0.12 0.15 0.26 0.14 0.14 0.19 0.23 0.31 0.39 0.39 0.50 0.82 0.72 0.69 0.86 0.90 0.90 0.87 0.86 0.73 0.68 0.77 0.80 0.79 0.68 0.63 0.60 0.52 0.52 0.64 0.78 0.75 0.76 0.94 0.94 0.81 0.73 0.70 0.60
0.26 0.19 0.34 0.19 0.04 0.03 0.10 0.16 0.13 0.21 0.47 0.43 0.51 0.61 0.75 1.00 1.19 1.20 0.92 0.67 0.70 0.88 0.98 0.73 0.74 0.68 0.73 0.74 0.91 0.97 0.94 0.90 0.86 0.73 0.79 0.92 1.09 1.13 0.97 0.92 0.96 0.95 0.95 0.98
0.38 0.30 0.28 0.16 0.01 0.00 0.02 0.15 0.08 0.16 0.63 0.62 0.62 0.52 0.61 0.82 1.31 1.17 0.76 0.39 0.29 0.27 0.40 0.73 0.71 0.56 0.58 0.66 0.62 0.83 1.07 1.10 1.21 1.33 1.47 1.57 1.51 1.39 1.47 1.45 1.34 1.28 1.25 1.17
0.37 0.38 0.12 0.02 0.04 0.03 0.21 0.31 0.10 0.07 0.22 0.64 0.83 1.01 1.03 0.97 1.08 0.85 0.61 0.19 0.06 0.03 0.02 0.05 0.29 0.48 0.44 0.45 0.63 0.66 0.71 1.02 1.09 1.27 1.37 1.31 1.49 1.58 1.72 1.96 2.08 1.97 1.83 1.56
0.44 0.45 0.22 0.04 0.14 0.30 0.31 0.14 0.09 0.07 0.05 0.14 0.44 0.52 0.42 0.66 0.64 0.48 0.29 0.06 0.00 0.00 0.00 0.01 0.01 0.05 0.18 0.29 0.34 0.43 0.50 0.46 0.58 0.67 0.71 0.91 0.94 1.03 1.15 1.21 1.35 1.45 1.48 1.59
0.19 0.22 0.30 0.23 0.25 0.27 0.14 0.18 0.16 0.10 0.15 0.27 0.31 0.29 0.37 0.32 0.16 0.06 0.04 0.02 0.01 0.01 0.02 0.02 0.01 0.02 0.03 0.07 0.10 0.13 0.18 0.24 0.30 0.37 0.50 0.55 0.63 0.71 0.69 0.72 0.72 0.76 0.83 0.90
0.53 0.63 0.39 0.48 0.36 0.13 0.11 0.21 0.22 0.16 0.11 0.11 0.10 0.11 0.15 0.13 0.06 0.03 0.02 0.02 0.02 0.02 0.01 0.01 0.01 0.01 0.03 0.03 0.04 0.05 0.07 0.08 0.10 0.18 0.26 0.27 0.35 0.42 0.52 0.58 0.63 0.71 0.76 0.78
0.93 0.80 0.63 0.72 0.72 0.57 0.40 0.18 0.15 0.17 0.14 0.11 0.08 0.08 0.07 0.06 0.05 0.02 0.01 0.01 0.01 0.01 0.01 0.00 0.02 0.02 0.04 0.05 0.05 0.06 0.06 0.09 0.10 0.09 0.11 0.12 0.18 0.33 0.41 0.63 0.78 0.86 1.04 1.12
1.32 1.04 0.91 0.90 0.50 0.36 0.30 0.27 0.15 0.07 0.04 0.03 0.02 0.01 0.01 0.02 0.02 0.01 0.01 0.02 0.02 0.02 0.01 0.02 0.02 0.03 0.03 0.02 0.04 0.07 0.11 0.12 0.21 0.22 0.21 0.21 0.24 0.33 0.47 0.53 0.53 0.56 0.70 0.82
0.60 0.92 0.88 0.73 0.47 0.26 0.17 0.09 0.03 0.01 0.01 0.02 0.03 0.02 0.05 0.04 0.03 0.04 0.03 0.03 0.03 0.03 0.04 0.04 0.05 0.07 0.13 0.18 0.16 0.18 0.21 0.22 0.21 0.23 0.30 0.35 0.40 0.45 0.60 0.80 0.87 1.02 1.13 1.22
0.40 0.47 0.37 0.23 0.15 0.07 0.02 0.01 0.02 0.01 0.01 0.02 0.07 0.08 0.06 0.05 0.05 0.03 0.04 0.02 0.02 0.02 0.04 0.06 0.13 0.26 0.40 0.54 0.62 0.74 0.87 0.98 0.99 1.06 1.04 0.98 0.95 0.94 0.97 1.02 1.12 1.37 1.39 1.25
0.22 0.19 0.20 0.14 0.05 0.03 0.02 0.03 0.04 0.07 0.13 0.17 0.13 0.07 0.04 0.04 0.04 0.04 0.03 0.02 0.02 0.03 0.07 0.12 0.19 0.31 0.40 0.47 0.60 0.70 0.77 0.90 0.95 0.99 1.02 0.97 0.93 0.92 0.90 0.86 0.81 0.83 0.78 0.71
0.03 0.05 0.09 0.09 0.07 0.04 0.04 0.06 0.13 0.29 0.25 0.15 0.08 0.04 0.04 0.05 0.05 0.05 0.06 0.05 0.06 0.11 0.13 0.15 0.21 0.32 0.25 0.22 0.28 0.38 0.53 0.68 0.65 0.72 0.81 0.79 0.78 0.76 0.75 0.71 0.70 0.67 0.62 0.66
0.01 0.02 0.04 0.10 0.13 0.15 0.22 0.29 0.31 0.27 0.17 0.09 0.09 0.08 0.06 0.05 0.06 0.09 0.12 0.14 0.13 0.17 0.18 0.22 0.42 0.44 0.45 0.52 0.58 0.76 0.83 0.87 0.82 0.76 0.78 0.77 0.71 0.63 0.58 0.54 0.51 0.49 0.54 0.51
0.02 0.03 0.07 0.15 0.31 0.32 0.22 0.16 0.13 0.12 0.14 0.16 0.16 0.14 0.17 0.20 0.27 0.32 0.37 0.31 0.26 0.31 0.51 0.70 0.75 0.75 0.76 0.78 0.74 0.75 0.73 0.72 0.66 0.65 0.61 0.58 0.54 0.49 0.50 0.50 0.47 0.41 0.35 0.26
0.12 0.19 0.23 0.26 0.23 0.18 0.15 0.15 0.17 0.18 0.21 0.24 0.28 0.39 0.45 0.54 0.56 0.67 0.70 0.66 0.74 0.76 1.12 0.98 0.84 0.74 0.74 0.73 0.57 0.53 0.51 0.46 0.41 0.43 0.43 0.41 0.39 0.39 0.37 0.31 0.27 0.23 0.23 0.24
0.21 0.17 0.15 0.13 0.10 0.11 0.15 0.21 0.24 0.32 0.45 0.46 0.55 0.70 0.84 1.05 1.03 1.02 0.89 0.91 0.98 1.03 0.96 0.78 0.55 0.44 0.42 0.37 0.29 0.27 0.29 0.31 0.30 0.30 0.28 0.25 0.23 0.21 0.19 0.19 0.24 0.27 0.25 0.23
0.44 0.41 0.41 0.41 0.48 0.55 0.62 0.73 0.68 0.88 1.13 1.07 0.90 0.98 0.97 1.09 1.01 0.94 0.76 0.72 0.83 0.63 0.47 0.39 0.32 0.28 0.21 0.18 0.16 0.16 0.16 0.17 0.19 0.20 0.23 0.25 0.24 0.25 0.30 0.29 0.26 0.25 0.25 0.23
0.62 0.62 0.72 0.75 0.68 0.84 0.96 0.93 0.78 0.79 0.80 0.78 0.77 0.76 0.66 0.75 0.66 0.56 0.52 0.47 0.51 0.38 0.27 0.22 0.19 0.13 0.10 0.10 0.12 0.13 0.13 0.17 0.20 0.21 0.24 0.28 0.32 0.30 0.25 0.21 0.21 0.21 0.21 0.20
0.64 0.60 0.60 0.62 0.57 0.63 0.68 0.65 0.67 0.55 0.56 0.58 0.58 0.58 0.48 0.49 0.46 0.35 0.37 0.35 0.23 0.19 0.15 0.14 0.11 0.07 0.07 0.11 0.12 0.14 0.17 0.22 0.24 0.27 0.27 0.22 0.22 0.21 0.20 0.17 0.16 0.17 0.18 0.18
0.60 0.58 0.61 0.61 0.45 0.31 0.40 0.57 0.45 0.42 0.37 0.36 0.34 0.31 0.23 0.20 0.26 0.20 0.17 0.15 0.10 0.09 0.08 0.08 0.07 0.06 0.09 0.16 0.17 0.20 0.21 0.22 0.17 0.17 0.17 0.16 0.17 0.17 0.18 0.16 0.15 0.15 0.15 0.16
0.53 0.53 0.54 0.49 0.38 0.44 0.39 0.38 0.26 0.25 0.17 0.16 0.15 0.13 0.10 0.09 0.16 0.13 0.07 0.06 0.07 0.10 0.12 0.09 0.09 0.08 0.14 0.17 0.18 0.16 0.17 0.16 0.14 0.17 0.18 0.18 0.17 0.18 0.17 0.17 0.16 0.16 0.16 0.14
0.42 0.40 0.42 0.38 0.37 0.32 0.27 0.18 0.17 0.17 0.11 0.12 0.16 0.14 0.11 0.09 0.08 0.09 0.09 0.09 0.09 0.09 0.15 0.14 0.12 0.11 0.16 0.16 0.16 0.15 0.17 0.16 0.15 0.17 0.18 0.18 0.18 0.17 0.16 0.15 0.15 0.15 0.16 0.17
0.36 0.34 0.26 0.20 0.19 0.18 0.16 0.17 0.16 0.17 0.16 0.15 0.17 0.14 0.12 0.10 0.10 0.11 0.11 0.13 0.14 0.13 0.16 0.16 0.15 0.15 0.16 0.17 0.18 0.17 0.17 0.17 0.16 0.16 0.17 0.18 0.19 0.18 0.17 0.17 0.18 0.17 0.16 0.17

GFSNGP_prec_precacc_123.txt.gz
Total_Precipitation_Accumulation
0.54 0.65 0.53 0.93 0.96 1.01 0.77 0.62 0.71 0.86 0.51 0.49 0.40 0.78 0.83 0.52 0.45 0.38 0.64 0.49 0.39 0.36 0.35 0.42 0.46 0.52 0.56 0.63 0.66 0.68 0.84 0.72 0.57 0.49 0.52 0.58 0.58 0.49 0.47 0.43 0.40 0.36 0.33 0.38
1.27 0.83 0.32 0.76 0.96 0.80 0.55 0.65 0.71 0.45 0.46 0.39 0.29 0.45 0.81 0.64 0.59 0.39 0.47 0.73 0.59 0.49 0.39 0.38 0.38 0.43 0.47 0.46 0.56 0.57 0.59 0.57 0.56 0.51 0.57 0.59 0.47 0.49 0.34 0.31 0.38 0.51 0.62 0.66
0.46 0.40 0.12 0.45 0.76 0.43 0.26 0.23 0.23 0.22 0.31 0.26 0.29 0.39 0.53 0.64 0.69 0.53 0.50 0.64 0.75 0.80 0.72 0.72 0.61 0.58 0.56 0.57 0.52 0.54 0.55 0.53 0.47 0.57 0.60 0.65 0.62 0.59 0.62 0.68 0.66 0.57 0.57 0.57
0.25 0.15 0.46 0.84 0.34 0.19 0.19 0.28 0.16 0.15 0.21 0.27 0.35 0.43 0.43 0.52 0.83 0.72 0.70 0.87 0.90 0.91 0.88 0.87 0.73 0.69 0.77 0.80 0.79 0.68 0.63 0.60 0.52 0.52 0.64 0.78 0.75 0.76 0.94 0.94 0.81 0.73 0.70 0.62
0.28 0.20 0.35 0.21 0.05 0.05 0.12 0.18 0.14 0.22 0.48 0.45 0.54 0.62 0.75 1.00 1.19 1.20 0.92 0.67 0.70 0.89 0.99 0.73 0.75 0.68 0.73 0.75 0.91 0.97 0.94 0.90 0.86 0.73 0.79 0.92 1.09 1.13 0.97 0.92 0.97 0.96 0.95 0.99
0.38 0.31 0.28 0.16 0.02 0.00 0.02 0.16 0.08 0.16 0.64 0.62 0.63 0.53 0.62 0.82 1.31 1.17 0.76 0.39 0.29 0.27 0.40 0.73 0.72 0.56 0.58 0.67 0.62 0.83 1.07 1.10 1.21 1.33 1.47 1.57 1.51 1.39 1.47 1.45 1.34 1.28 1.25 1.18
0.38 0.39 0.12 0.02 0.04 0.03 0.21 0.32 0.10 0.07 0.22 0.64 0.83 1.01 1.03 0.97 1.08 0.85 0.61 0.19 0.06 0.03 0.02 0.05 0.29 0.48 0.44 0.45 0.64 0.66 0.71 1.02 1.09 1.27 1.37 1.31 1.49 1.58 1.72 1.96 2.08 1.97 1.83 1.56
0.48 0.46 0.22 0.05 0.15 0.30 0.32 0.14 0.09 0.07 0.05 0.14 0.44 0.52 0.42 0.66 0.64 0.48 0.29 0.06 0.00 0.00 0.00 0.01 0.01 0.05 0.19 0.29 0.35 0.43 0.50 0.46 0.58 0.67 0.71 0.91 0.94 1.03 1.15 1.21 1.35 1.45 1.48 1.59
0.21 0.23 0.30 0.24 0.26 0.27 0.14 0.18 0.16 0.10 0.15 0.27 0.31 0.29 0.37 0.32 0.16 0.06 0.04 0.02 0.01 0.01 0.02 0.02 0.01 0.02 0.04 0.07 0.10 0.13 0.18 0.24 0.30 0.37 0.50 0.55 0.63 0.71 0.69 0.72 0.72 0.76 0.83 0.90
0.53 0.63 0.39 0.48 0.36 0.13 0.11 0.21 0.22 0.16 0.11 0.11 0.10 0.11 0.15 0.13 0.06 0.03 0.02 0.02 0.02 0.02 0.01 0.01 0.01 0.01 0.04 0.03 0.04 0.05 0.07 0.08 0.10 0.18 0.26 0.27 0.35 0.42 0.52 0.59 0.63 0.71 0.76 0.79
0.94 0.80 0.63 0.72 0.72 0.57 0.40 0.18 0.15 0.17 0.14 0.11 0.08 0.08 0.07 0.06 0.05 0.02 0.01 0.01 0.01 0.01 0.01 0.00 0.02 0.02 0.04 0.05 0.05 0.06 0.06 0.09 0.10 0.09 0.11 0.12 0.18 0.33 0.41 0.64 0.79 0.88 1.06 1.13
1.32 1.04 0.91 0.90 0.50 0.36 0.30 0.27 0.15 0.07 0.04 0.03 0.02 0.01 0.01 0.02 0.02 0.01 0.01 0.02 0.02 0.02 0.01 0.02 0.02 0.03 0.03 0.02 0.04 0.07 0.11 0.13 0.21 0.22 0.21 0.21 0.24 0.33 0.47 0.53 0.53 0.57 0.70 0.82
0.60 0.92 0.88 0.73 0.47 0.26 0.17 0.09 0.03 0.01 0.01 0.02 0.03 0.02 0.05 0.04 0.03 0.04 0.03 0.03 0.03 0.03 0.04 0.04 0.05 0.07 0.13 0.18 0.16 0.18 0.21 0.23 0.21 0.23 0.30 0.35 0.40 0.45 0.60 0.80 0.87 1.02 1.14 1.22
0.40 0.47 0.37 0.23 0.15 0.07 0.02 0.01 0.02 0.01 0.01 0.02 0.07 0.08 0.06 0.05 0.05 0.03 0.04 0.02 0.02 0.02 0.04 0.06 0.13 0.26 0.40 0.54 0.62 0.74 0.87 0.98 0.99 1.07 1.04 0.98 0.95 0.94 0.97 1.02 1.12 1.37 1.39 1.25
0.22 0.19 0.20 0.14 0.05 0.03 0.02 0.03 0.04 0.07 0.13 0.17 0.13 0.07 0.04 0.04 0.04 0.04 0.03 0.02 0.02 0.03 0.07 0.12 0.19 0.31 0.40 0.47 0.60 0.70 0.77 0.90 0.95 0.99 1.02 0.97 0.93 0.92 0.90 0.86 0.81 0.83 0.78 0.71
0.03 0.05 0.09 0.09 0.07 0.04 0.04 0.06 0.13 0.29 0.25 0.15 0.08 0.04 0.04 0.05 0.05 0.05 0.06 0.05 0.06 0.11 0.13 0.15 0.21 0.32 0.25 0.22 0.28 0.38 0.53 0.68 0.65 0.72 0.81 0.79 0.78 0.76 0.75 0.71 0.70 0.67 0.62 0.66
0.01 0.02 0.04 0.10 0.13 0.15 0.22 0.29 0.31 0.27 0.17 0.09 0.09 0.08 0.06 0.05 0.06 0.09 0.12 0.14 0.13 0.17 0.18 0.22 0.42 0.44 0.45 0.52 0.58 0.76 0.83 0.87 0.82 0.76 0.78 0.77 0.71 0.64 0.58 0.54 0.51 0.49 0.54 0.51
0.02 0.03 0.07 0.15 0.31 0.32 0.22 0.16 0.13 0.12 0.14 0.16 0.16 0.14 0.17 0.20 0.27 0.32 0.37 0.31 0.26 0.31 0.51 0.70 0.75 0.75 0.76 0.78 0.74 0.75 0.73 0.72 0.66 0.65 0.61 0.58 0.54 0.50 0.51 0.50 0.47 0.41 0.35 0.26
0.12 0.19 0.23 0.26 0.23 0.18 0.15 0.15 0.17 0.18 0.21 0.24 0.28 0.39 0.45 0.54 0.56 0.67 0.70 0.66 0.74 0.76 1.12 0.98 0.84 0.74 0.74 0.73 0.57 0.53 0.51 0.46 0.41 0.43 0.43 0.41 0.39 0.39 0.37 0.31 0.27 0.23 0.23 0.24
0.21 0.17 0.15 0.13 0.10 0.11 0.15 0.21 0.24 0.32 0.45 0.46 0.55 0.70 0.84 1.05 1.03 1.02 0.89 0.91 0.98 1.03 0.96 0.78 0.55 0.44 0.42 0.37 0.29 0.27 0.29 0.31 0.30 0.30 0.28 0.25 0.24 0.22 0.19 0.19 0.24 0.28 0.25 0.23
0.44 0.41 0.41 0.41 0.48 0.55 0.62 0.73 0.68 0.88 1.13 1.07 0.90 0.98 0.97 1.09 1.01 0.94 0.76 0.72 0.83 0.63 0.47 0.39 0.32 0.28 0.21 0.18 0.16 0.16 0.16 0.17 0.19 0.20 0.23 0.25 0.24 0.25 0.30 0.29 0.26 0.25 0.26 0.23
0.62 0.62 0.72 0.75 0.68 0.84 0.96 0.93 0.78 0.79 0.80 0.78 0.77 0.76 0.66 0.75 0.66 0.56 0.52 0.47 0.51 0.38 0.27 0.22 0.19 0.13 0.10 0.10 0.12 0.13 0.13 0.17 0.20 0.21 0.24 0.28 0.32 0.30 0.25 0.22 0.21 0.21 0.21 0.20
0.64 0.60 0.60 0.62 0.57 0.63 0.68 0.65 0.67 0.55 0.56 0.58 0.58 0.58 0.48 0.49 0.46 0.35 0.37 0.35 0.23 0.19 0.15 0.14 0.11 0.07 0.07 0.11 0.12 0.14 0.17 0.22 0.24 0.27 0.27 0.22 0.22 0.21 0.20 0.18 0.16 0.17 0.18 0.18
0.60 0.58 0.61 0.61 0.45 0.31 0.40 0.57 0.45 0.42 0.37 0.36 0.34 0.31 0.23 0.20 0.26 0.20 0.17 0.15 0.10 0.09 0.08 0.08 0.07 0.06 0.09 0.16 0.17 0.20 0.21 0.22 0.17 0.17 0.17 0.16 0.17 0.17 0.18 0.16 0.15 0.15 0.15 0.16
0.53 0.53 0.54 0.49 0.38 0.44 0.39 0.38 0.26 0.25 0.17 0.16 0.15 0.13 0.10 0.09 0.16 0.13 0.07 0.06 0.07 0.10 0.12 0.09 0.09 0.08 0.14 0.17 0.18 0.16 0.17 0.16 0.14 0.17 0.18 0.18 0.17 0.18 0.17 0.17 0.16 0.16 0.16 0.14
0.42 0.40 0.42 0.38 0.37 0.32 0.27 0.18 0.17 0.17 0.11 0.12 0.16 0.14 0.11 0.09 0.08 0.09 0.09 0.09 0.09 0.09 0.15 0.14 0.12 0.11 0.16 0.16 0.16 0.15 0.17 0.16 0.15 0.17 0.19 0.18 0.18 0.17 0.17 0.15 0.15 0.16 0.17 0.17
0.36 0.34 0.26 0.20 0.19 0.18 0.16 0.17 0.16 0.17 0.16 0.15 0.17 0.14 0.12 0.10 0.10 0.11 0.11 0.13 0.14 0.13 0.16 0.16 0.15 0.15 0.16 0.17 0.18 0.17 0.18 0.17 0.16 0.16 0.17 0.18 0.19 0.18 0.17 0.18 0.18 0.17 0.17 0.17

GFSNGP_prec_precacc_126.txt.gz
Total_Precipitation_Accumulation
0.55 0.66 0.54 0.96 0.99 1.02 0.78 0.65 0.76 0.89 0.53 0.52 0.44 0.83 0.88 0.59 0.54 0.44 0.65 0.49 0.40 0.38 0.41 0.58 0.65 0.64 0.63 0.65 0.67 0.68 0.84 0.72 0.57 0.49 0.52 0.58 0.58 0.49 0.48 0.44 0.41 0.37 0.36 0.42
1.30 0.84 0.34 0.79 0.99 0.84 0.56 0.67 0.71 0.46 0.48 0.42 0.32 0.50 0.87 0.71 0.67 0.46 0.49 0.74 0.60 0.49 0.39 0.38 0.38 0.44 0.47 0.46 0.56 0.57 0.59 0.57 0.56 0.51 0.57 0.59 0.47 0.49 0.34 0.31 0.38 0.52 0.64 0.69
0.49 0.43 0.15 0.48 0.81 0.47 0.27 0.24 0.24 0.23 0.32 0.28 0.32 0.42 0.59 0.69 0.72 0.55 0.52 0.65 0.76 0.81 0.73 0.72 0.61 0.59 0.56 0.57 0.52 0.54 0.55 0.53 0.47 0.57 0.60 0.65 0.62 0.59 0.62 0.68 0.66 0.57 0.59 0.63
0.26 0.19 0.51 0.87 0.38 0.22 0.21 0.30 0.16 0.16 0.22 0.28 0.37 0.45 0.45 0.53 0.83 0.73 0.70 0.87 0.91 0.91 0.88 0.87 0.73 0.69 0.77 0.80 0.79 0.68 0.63 0.60 0.52 0.52 0.64 0.78 0.75 0.76 0.94 0.94 0.81 0.73 0.70 0.62
0.30 0.21 0.38 0.24 0.06 0.07 0.15 0.19 0.15 0.23 0.49 0.45 0.55 0.63 0.75 1.00 1.20 1.20 0.93 0.67 0.71 0.89 0.99 0.73 0.75 0.68 0.73 0.75 0.91 0.97 0.94 0.90 0.86 0.73 0.79 0.92 1.09 1.13 0.98 0.92 0.97 0.96 0.95 0.99
0.38 0.31 0.29 0.17 0.02 0.00 0.02 0.16 0.08 0.17 0.64 0.62 0.64 0.53 0.62 0.82 1.32 1.18 0.76 0.39 0.29 0.27 0.40 0.73 0.72 0.56 0.58 0.67 0.62 0.83 1.07 1.10 1.22 1.33 1.47 1.57 1.51 1.40 1.47 1.45 1.35 1.29 1.25 1.18
0.40 0.39 0.12 0.02 0.04 0.03 0.23 0.33 0.10 0.07 0.22 0.64 0.84 1.01 1.04 0.97 1.08 0.85 0.61 0.19 0.06 0.03 0.02 0.05 0.29 0.48 0.44 0.45 0.64 0.67 0.72 1.02 1.09 1.27 1.37 1.32 1.49 1.58 1.73 1.97 2.08 1.97 1.84 1.56
0.49 0.47 0.23 0.05 0.15 0.30 0.32 0.15 0.09 0.07 0.05 0.14 0.44 0.52 0.42 0.66 0.64 0.48 0.29 0.06 0.00 0.00 0.00 0.01 0.01 0.05 0.19 0.29 0.35 0.43 0.50 0.46 0.58 0.67 0.71 0.92 0.95 1.03 1.15 1.21 1.35 1.45 1.49 1.59
0.21 0.23 0.30 0.24 0.26 0.27 0.14 0.18 0.16 0.10 0.15 0.27 0.31 0.29 0.37 0.32 0.16 0.06 0.04 0.02 0.01 0.01 0.02 0.02 0.01 0.02 0.04 0.07 0.10 0.13 0.18 0.24 0.30 0.37 0.50 0.55 0.63 0.71 0.69 0.72 0.72 0.77 0.83 0.91
0.53 0.64 0.39 0.48 0.36 0.13 0.11 0.21 0.22 0.16 0.11 0.11 0.10 0.11 0.15 0.13 0.06 0.03 0.02 0.02 0.02 0.02 0.01 0.01 0.01 0.01 0.04 0.03 0.04 0.05 0.07 0.08 0.10 0.18 0.26 0.27 0.35 0.42 0.52 0.59 0.64 0.71 0.76 0.79
0.94 0.81 0.63 0.72 0.72 0.57 0.40 0.18 0.15 0.17 0.14 0.11 0.08 0.08 0.07 0.06 0.05 0.02 0.01 0.01 0.01 0.01 0.01 0.00 0.02 0.02 0.04 0.05 0.05 0.06 0.06 0.09 0.10 0.09 0.11 0.12 0.18 0.34 0.41 0.65 0.79 0.88 1.07 1.14
1.32 1.04 0.91 0.90 0.50 0.36 0.30 0.27 0.15 0.07 0.04 0.03 0.02 0.01 0.01 0.02 0.02 0.01 0.01 0.02 0.02 0.02 0.01 0.02 0.02 0.03 0.03 0.02 0.04 0.07 0.11 0.13 0.21 0.22 0.21 0.21 0.24 0.33 0.47 0.53 0.53 0.57 0.71 0.83
0.60 0.92 0.88 0.73 0.47 0.26 0.17 0.09 0.03 0.01 0.01 0.02 0.03 0.02 0.05 0.04 0.03 0.04 0.03 0.03 0.03 0.03 0.04 0.04 0.05 0.07 0.13 0.18 0.16 0.18 0.21 0.23 0.21 0.23 0.30 0.35 0.40 0.45 0.60 0.80 0.87 1.02 1.14 1.22
0.40 0.47 0.37 0.23 0.15 0.07 0.02 0.01 0.02 0.01 0.01 0.02 0.07 0.08 0.06 0.05 0.05 0.03 0.04 0.02 0.02 0.02 0.04 0.06 0.13 0.26 0.40 0.54 0.62 0.74 0.87 0.98 0.99 1.07 1.04 0.99 0.95 0.95 0.98 1.02 1.12 1.37 1.39 1.25
0.22 0.19 0.20 0.14 0.05 0.03 0.02 0.03 0.04 0.07 0.13 0.17 0.13 0.07 0.04 0.04 0.04 0.04 0.03 0.02 0.02 0.03 0.07 0.12 0.19 0.31 0.40 0.47 0.60 0.70 0.77 0.90 0.95 1.00 1.02 0.97 0.93 0.92 0.90 0.86 0.81 0.84 0.78 0.71
0.03 0.05 0.09 0.09 0.07 0.04 0.04 0.06 0.13 0.29 0.25 0.15 0.08 0.04 0.04 0.05 0.05 0.05 0.06 0.05 0.06 0.11 0.13 0.15 0.21 0.32 0.25 0.22 0.28 0.38 0.53 0.68 0.65 0.72 0.81 0.79 0.79 0.76 0.75 0.72 0.70 0.67 0.63 0.66
0.01 0.02 0.04 0.10 0.13 0.15 0.22 0.29 0.31 0.27 0.17 0.09 0.09 0.08 0.06 0.05 0.06 0.09 0.12 0.14 0.13 0.17 0.18 0.22 0.42 0.44 0.45 0.52 0.58 0.76 0.83 0.87 0.82 0.76 0.79 0.78 0.72 0.64 0.58 0.54 0.52 0.50 0.55 0.52
0.02 0.03 0.07 0.15 0.31 0.32 0.22 0.16 0.13 0.12 0.14 0.16 0.16 0.14 0.17 0.20 0.27 0.32 0.37 0.31 0.26 0.31 0.51 0.70 0.75 0.75 0.76 0.78 0.74 0.75 0.73 0.72 0.66 0.65 0.62 0.58 0.55 0.50 0.51 0.51 0.47 0.41 0.36 0.26
0.12 0.19 0.23 0.26 0.23 0.18 0.15 0.15 0.17 0.18 0.21 0.24 0.28 0.39 0.45 0.54 0.56 0.67 0.70 0.66 0.74 0.76 1.12 0.98 0.84 0.74 0.74 0.73 0.57 0.53 0.51 0.46 0.41 0.43 0.43 0.41 0.40 0.40 0.38 0.32 0.27 0.24 0.23 0.24
0.21 0.17 0.15 0.13 0.10 0.11 0.15 0.21 0.24 0.32 0.45 0.46 0.55 0.70 0.84 1.05 1.03 1.02 0.89 0.91 0.98 1.03 0.96 0.78 0.55 0.44 0.42 0.37 0.29 0.27 0.29 0.31 0.30 0.30 0.28 0.25 0.24 0.22 0.20 0.20 0.24 0.28 0.26 0.24
0.44 0.41 0.41 0.41 0.48 0.55 0.62 0.73 0.68 0.88 1.13 1.07 0.90 0.98 0.97 1.09 1.01 0.94 0.76 0.72 0.83 0.63 0.47 0.39 0.32 0.28 0.21 0.18 0.16 0.16 0.16 0.17 0.19 0.20 0.23 0.25 0.24 0.25 0.30 0.30 0.27 0.26 0.26 0.24
0.62 0.62 0.72 0.75 0.68 0.84 0.96 0.93 0.78 0.79 0.80 0.78 0.77 0.76 0.66 0.75 0.66 0.56 0.52 0.47 0.51 0.38 0.27 0.22 0.19 0.13 0.10 0.10 0.12 0.13 0.13 0.17 0.21 0.22 0.25 0.29 0.33 0.30 0.25 0.22 0.22 0.22 0.21 0.21
0.64 0.60 0.60 0.62 0.57 0.63 0.68 0.65 0.67 0.55 0.56 0.58 0.58 0.58 0.48 0.49 0.46 0.35 0.37 0.35 0.23 0.19 0.15 0.14 0.11 0.07 0.07 0.11 0.12 0.15 0.17 0.22 0.24 0.27 0.27 0.23 0.22 0.21 0.20 0.18 0.17 0.18 0.19 0.18
0.60 0.58 0.61 0.61 0.45 0.31 0.40 0.57 0.45 0.42 0.37 0.36 0.34 0.31 0.23 0.20 0.26 0.20 0.17 0.15 0.10 0.09 0.08 0.08 0.07 0.06 0.09 0.16 0.18 0.20 0.22 0.22 0.17 0.17 0.18 0.16 0.17 0.17 0.18 0.16 0.15 0.15 0.16 0.16
0.53 0.53 0.54 0.49 0.38 0.44 0.39 0.38 0.26 0.25 0.17 0.16 0.15 0.13 0.10 0.09 0.16 0.13 0.07 0.07 0.07 0.10 0.12 0.09 0.09 0.08 0.14 0.18 0.18 0.17 0.17 0.17 0.14 0.17 0.18 0.18 0.18 0.19 0.17 0.17 0.17 0.16 0.16 0.15
0.42 0.40 0.42 0.38 0.37 0.32 0.27 0.18 0.17 0.17 0.11 0.12 0.16 0.14 0.11 0.09 0.08 0.09 0.09 0.09 0.09 0.10 0.15 0.14 0.13 0.11 0.16 0.17 0.17 0.16 0.17 0.16 0.16 0.17 0.19 0.19 0.19 0.18 0.17 0.16 0.16 0.16 0.17 0.17
0.36 0.34 0.26 0.20 0.19 0.18 0.16 0.17 0.16 0.17 0.16 0.15 0.17 0.15 0.12 0.10 0.10 0.11 0.11 0.13 0.14 0.14 0.16 0.17 0.16 0.16 0.16 0.18 0.18 0.17 0.18 0.18 0.17 0.16 0.18 0.19 0.20 0.19 0.18 0.18 0.19 0.18 0.17 0.17

GFSNGP_prec_precacc_129.txt.gz
Total_Precipitation_Accumulation
0.55 0.66 0.54 0.97 1.00 1.03 0.78 0.67 0.79 0.91 0.53 0.52 0.45 0.83 0.89 0.61 0.57 0.49 0.68 0.51 0.40 0.38 0.42 0.63 0.78 0.80 0.83 0.79 0.74 0.76 0.92 0.80 0.58 0.49 0.52 0.59 0.59 0.50 0.49 0.45 0.42 0.39 0.39 0.46
1.32 0.84 0.34 0.79 1.00 0.86 0.57 0.68 0.72 0.46 0.48 0.43 0.33 0.50 0.88 0.74 0.70 0.49 0.51 0.74 0.60 0.50 0.39 0.38 0.39 0.46 0.49 0.49 0.57 0.58 0.60 0.57 0.57 0.51 0.57 0.59 0.47 0.49 0.34 0.31 0.39 0.53 0.66 0.72
0.53 0.44 0.16 0.50 0.82 0.48 0.28 0.24 0.24 0.24 0.33 0.29 0.33 0.43 0.60 0.71 0.73 0.56 0.52 0.65 0.76 0.81 0.73 0.73 0.62 0.59 0.56 0.57 0.52 0.54 0.55 0.53 0.47 0.57 0.60 0.65 0.62 0.59 0.62 0.68 0.66 0.57 0.59 0.63
0.30 0.21 0.56 0.88 0.38 0.23 0.21 0.30 0.16 0.16 0.23 0.29 0.37 0.46 0.45 0.53 0.83 0.73 0.70 0.87 0.91 0.91 0.88 0.88 0.74 0.69 0.77 0.80 0.79 0.68 0.63 0.60 0.52 0.52 0.64 0.78 0.75 0.76 0.94 0.94 0.81 0.73 0.70 0.62
0.33 0.26 0.40 0.25 0.07 0.07 0.17 0.20 0.15 0.23 0.49 0.46 0.55 0.63 0.75 1.00 1.20 1.21 0.93 0.67 0.71 0.89 0.99 0.73 0.75 0.68 0.73 0.75 0.91 0.97 0.95 0.90 0.86 0.73 0.79 0.92 1.09 1.14 0.98 0.92 0.97 0.96 0.95 0.99
0.40 0.34 0.31 0.17 0.02 0.00 0.03 0.18 0.08 0.17 0.64 0.63 0.64 0.55 0.62 0.82 1.32 1.18 0.76 0.39 0.29 0.27 0.40 0.73 0.72 0.56 0.58 0.67 0.62 0.83 1.08 1.10 1.22 1.34 1.48 1.58 1.52 1.40 1.47 1.45 1.35 1.29 1.26 1.18
0.42 0.43 0.14 0.02 0.04 0.03 0.26 0.37 0.10 0.07 0.22 0.64 0.84 1.01 1.04 0.98 1.09 0.85 0.61 0.19 0.06 0.03 0.02 0.05 0.29 0.48 0.44 0.45 0.64 0.67 0.72 1.02 1.09 1.27 1.38 1.32 1.49 1.59 1.73 1.97 2.09 1.97 1.84 1.56
0.50 0.49 0.25 0.05 0.15 0.31 0.33 0.15 0.09 0.07 0.05 0.14 0.44 0.52 0.42 0.66 0.64 0.48 0.29 0.06 0.00 0.00 0.00 0.01 0.01 0.05 0.19 0.29 0.35 0.43 0.50 0.46 0.58 0.67 0.71 0.92 0.95 1.03 1.16 1.21 1.35 1.46 1.49 1.59
0.22 0.25 0.31 0.24 0.26 0.27 0.14 0.18 0.16 0.10 0.15 0.27 0.31 0.29 0.37 0.32 0.16 0.06 0.04 0.02 0.01 0.01 0.02 0.02 0.01 0.02 0.04 0.07 0.10 0.13 0.18 0.24 0.30 0.37 0.50 0.55 0.63 0.71 0.69 0.72 0.72 0.77 0.83 0.91
0.53 0.64 0.39 0.48 0.36 0.13 0.11 0.21 0.22 0.16 0.11 0.11 0.10 0.11 0.15 0.13 0.06 0.03 0.02 0.02 0.02 0.02 0.01 0.01 0.01 0.01 0.04 0.03 0.04 0.05 0.07 0.08 0.10 0.18 0.26 0.27 0.35 0.42 0.52 0.59 0.64 0.71 0.77 0.80
0.94 0.81 0.63 0.72 0.73 0.57 0.40 0.18 0.15 0.17 0.14 0.11 0.08 0.08 0.07 0.06 0.05 0.02 0.01 0.01 0.01 0.01 0.01 0.00 0.02 0.02 0.04 0.05 0.05 0.06 0.06 0.09 0.10 0.09 0.11 0.12 0.18 0.34 0.41 0.65 0.79 0.89 1.07 1.15
1.32 1.04 0.91 0.90 0.50 0.36 0.30 0.27 0.15 0.07 0.04 0.03 0.02 0.01 0.01 0.02 0.02 0.01 0.01 0.02 0.02 0.02 0.01 0.02 0.02 0.03 0.03 0.02 0.04 0.07 0.11 0.13 0.21 0.22 0.21 0.21 0.24 0.33 0.47 0.53 0.53 0.57 0.71 0.83
0.60 0.92 0.88 0.73 0.47 0.26 0.17 0.09 0.03 0.01 0.01 0.02 0.03 0.02 0.05 0.04 0.03 0.04 0.03 0.03 0.03 0.03 0.04 0.04 0.05 0.07 0.13 0.18 0.16 0.18 0.21 0.23 0.21 0.23 0.30 0.35 0.40 0.45 0.60 0.80 0.87 1.02 1.14 1.22
0.40 0.47 0.37 0.23 0.15 0.07 0.02 0.01 0.02 0.01 0.01 0.02 0.07 0.08 0.06 0.05 0.05 0.03 0.04 0.02 0.02 0.02 0.04 0.06 0.13 0.26 0.40 0.54 0.62 0.74 0.87 0.98 0.99 1.07 1.04 0.99 0.95 0.95 0.98 1.02 1.12 1.37 1.39 1.25
0.22 0.19 0.20 0.14 0.05 0.03 0.02 0.03 0.04 0.07 0.13 0.17 0.13 0.07 0.04 0.04 0.04 0.04 0.03 0.02 0.02 0.03 0.07 0.12 0.19 0.31 0.40 0.47 0.60 0.70 0.77 0.90 0.95 1.00 1.02 0.97 0.93 0.92 0.90 0.87 0.81 0.84 0.78 0.71
0.03 0.05 0.09 0.09 0.07 0.04 0.04 0.06 0.13 0.29 0.25 0.15 0.08 0.04 0.04 0.05 0.05 0.05 0.06 0.05 0.06 0.11 0.13 0.15 0.21 0.32 0.25 0.22 0.28 0.38 0.53 0.68 0.65 0.72 0.81 0.79 0.79 0.76 0.75 0.72 0.70 0.67 0.63 0.66
0.01 0.02 0.04 0.10 0.13 0.15 0.22 0.29 0.31 0.27 0.17 0.09 0.09 0.08 0.06 0.05 0.06 0.09 0.12 0.14 0.13 0.17 0.18 0.22 0.42 0.44 0.45 0.52 0.58 0.76 0.83 0.87 0.82 0.76 0.79 0.78 0.72 0.64 0.59 0.54 0.52 0.50 0.55 0.53
0.02 0.03 0.07 0.15 0.31 0.32 0.22 0.16 0.13 0.12 0.14 0.16 0.16 0.14 0.17 0.20 0.27 0.32 0.37 0.31 0.26 0.31 0.51 0.70 0.75 0.75 0.76 0.78 0.74 0.75 0.73 0.72 0.66 0.65 0.62 0.58 0.55 0.50 0.51 0.51 0.47 0.42 0.36 0.26
0.12 0.19 0.23 0.26 0.23 0.18 0.15 0.15 0.17 0.18 0.21 0.24 0.28 0.39 0.45 0.54 0.56 0.67 0.70 0.66 0.74 0.76 1.12 0.98 0.84 0.74 0.74 0.73 0.57 0.53 0.51 0.46 0.41 0.43 0.43 0.41 0.40 0.40 0.38 0.32 0.28 0.24 0.23 0.25
0.21 0.17 0.15 0.13 0.10 0.11 0.15 0.21 0.24 0.32 0.45 0.46 0.55 0.70 0.84 1.05 1.03 1.02 0.89 0.91 0.98 1.03 0.96 0.78 0.55 0.44 0.42 0.37 0.29 0.27 0.29 0.31 0.30 0.30 0.28 0.25 0.24 0.22 0.20 0.20 0.25 0.29 0.27 0.24
0.44 0.41 0.41 0.41 0.48 0.55 0.62 0.73 0.68 0.88 1.13 1.07 0.90 0.98 0.97 1.09 1.01 0.94 0.76 0.72 0.83 0.63 0.47 0.39 0.32 0.28 0.21 0.18 0.16 0.16 0.16 0.18 0.19 0.21 0.23 0.26 0.25 0.26 0.31 0.30 0.27 0.26 0.27 0.25
0.62 0.62 0.72 0.75 0.68 0.84 0.96 0.93 0.78 0.79 0.80 0.78 0.77 0.76 0.66 0.75 0.66 0.56 0.52 0.47 0.51 0.38 0.27 0.22 0.19 0.13 0.10 0.10 0.12 0.13 0.13 0.17 0.21 0.22 0.25 0.29 0.33 0.31 0.26 0.22 0.22 0.22 0.22 0.22
0.64 0.60 0.60 0.62 0.57 0.63 0.68 0.65 0.67 0.55 0.56 0.58 0.58 0.58 0.48 0.49 0.46 0.35 0.37 0.35 0.23 0.19 0.15 0.14 0.11 0.07 0.07 0.11 0.13 0.15 0.18 0.22 0.25 0.28 0.28 0.23 0.23 0.22 0.21 0.18 0.17 0.18 0.19 0.19
0.60 0.58 0.61 0.61 0.45 0.31 0.40 0.57 0.45 0.42 0.37 0.36 0.34 0.31 0.23 0.20 0.26 0.20 0.17 0.15 0.10 0.09 0.08 0.08 0.08 0.06 0.09 0.16 0.18 0.21 0.23 0.23 0.18 0.18 0.19 0.17 0.18 0.18 0.19 0.17 0.16 0.16 0.16 0.16
0.53 0.53 0.54 0.49 0.38 0.44 0.39 0.38 0.26 0.25 0.17 0.16 0.15 0.13 0.10 0.09 0.16 0.13 0.07 0.07 0.07 0.10 0.12 0.10 0.09 0.08 0.14 0.18 0.19 0.18 0.18 0.18 0.15 0.18 0.19 0.19 0.19 0.20 0.18 0.18 0.18 0.17 0.17 0.16
0.42 0.40 0.42 0.38 0.37 0.32 0.27 0.18 0.17 0.17 0.11 0.12 0.16 0.14 0.11 0.09 0.08 0.09 0.10 0.10 0.09 0.10 0.15 0.15 0.14 0.13 0.17 0.18 0.18 0.17 0.18 0.17 0.16 0.18 0.21 0.20 0.20 0.19 0.19 0.17 0.17 0.17 0.18 0.18
0.36 0.34 0.26 0.20 0.19 0.18 0.16 0.17 0.16 0.17 0.16 0.15 0.17 0.15 0.12 0.11 0.10 0.11 0.12 0.14 0.14 0.14 0.17 0.18 0.17 0.17 0.18 0.19 0.20 0.19 0.19 0.19 0.18 0.17 0.19 0.20 0.21 0.20 0.20 0.20 0.20 0.19 0.18 0.19

GFSNGP_prec_precacc_132.txt.gz
Total_Precipitation_Accumulation
0.55 0.66 0.54 0.97 1.00 1.03 0.78 0.68 0.81 0.92 0.53 0.52 0.45 0.83 0.89 0.61 0.57 0.49 0.69 0.51 0.41 0.38 0.42 0.66 0.87 0.89 0.93 0.88 0.87 0.91 1.07 0.91 0.64 0.52 0.54 0.60 0.60 0.51 0.49 0.46 0.45 0.43 0.42 0.49
1.32 0.84 0.34 0.79 1.00 0.86 0.58 0.68 0.72 0.46 0.48 0.43 0.33 0.50 0.89 0.74 0.70 0.49 0.51 0.74 0.60 0.50 0.39 0.39 0.40 0.48 0.54 0.54 0.59 0.60 0.62 0.61 0.61 0.53 0.58 0.59 0.47 0.49 0.35 0.31 0.39 0.54 0.68 0.76
0.54 0.44 0.17 0.51 0.82 0.48 0.28 0.24 0.25 0.24 0.33 0.29 0.33 0.43 0.60 0.71 0.73 0.56 0.52 0.65 0.76 0.81 0.73 0.73 0.62 0.59 0.56 0.57 0.53 0.55 0.55 0.54 0.47 0.57 0.60 0.65 0.62 0.59 0.63 0.69 0.66 0.57 0.59 0.63
0.33 0.22 0.59 0.89 0.38 0.23 0.21 0.30 0.16 0.16 0.23 0.29 0.37 0.46 0.45 0.53 0.84 0.73 0.70 0.87 0.91 0.91 0.88 0.88 0.74 0.69 0.77 0.80 0.79 0.68 0.63 0.60 0.53 0.52 0.64 0.78 0.75 0.76 0.95 0.94 0.81 0.73 0.70 0.62
0.36 0.30 0.42 0.25 0.07 0.07 0.17 0.20 0.15 0.23 0.49 0.46 0.55 0.63 0.75 1.00 1.20 1.21 0.93 0.67 0.71 0.89 0.99 0.73 0.75 0.68 0.73 0.75 0.91 0.97 0.95 0.90 0.86 0.73 0.79 0.92 1.09 1.14 0.98 0.92 0.97 0.96 0.95 0.99
0.42 0.38 0.37 0.18 0.02 0.00 0.03 0.18 0.08 0.17 0.64 0.63 0.64 0.56 0.62 0.82 1.32 1.18 0.76 0.39 0.29 0.27 0.40 0.73 0.72 0.56 0.58 0.67 0.62 0.83 1.08 1.11 1.22 1.34 1.48 1.58 1.52 1.40 1.47 1.46 1.35 1.29 1.26 1.19
0.43 0.46 0.17 0.02 0.04 0.03 0.26 0.38 0.10 0.07 0.22 0.64 0.84 1.02 1.04 0.98 1.09 0.85 0.61 0.19 0.06 0.03 0.02 0.05 0.29 0.48 0.44 0.45 0.64 0.67 0.72 1.02 1.09 1.27 1.38 1.32 1.49 1.59 1.73 1.97 2.09 1.97 1.84 1.57
0.50 0.51 0.29 0.05 0.16 0.32 0.33 0.15 0.09 0.07 0.05 0.14 0.44 0.52 0.42 0.66 0.64 0.48 0.29 0.06 0.00 0.00 0.00 0.01 0.01 0.05 0.19 0.29 0.35 0.43 0.50 0.46 0.58 0.67 0.71 0.92 0.95 1.03 1.16 1.21 1.35 1.46 1.49 1.59
0.22 0.26 0.31 0.24 0.27 0.27 0.14 0.18 0.16 0.10 0.15 0.27 0.31 0.29 0.37 0.32 0.16 0.06 0.04 0.02 0.01 0.01 0.02 0.02 0.01 0.02 0.04 0.07 0.10 0.13 0.18 0.24 0.30 0.37 0.50 0.55 0.63 0.71 0.69 0.72 0.72 0.77 0.83 0.91
0.53 0.64 0.39 0.48 0.36 0.13 0.11 0.21 0.22 0.16 0.11 0.11 0.10 0.11 0.15 0.13 0.06 0.03 0.02 0.02 0.02 0.02 0.01 0.01 0.01 0.01 0.04 0.03 0.04 0.05 0.07 0.08 0.10 0.18 0.26 0.27 0.35 0.42 0.52 0.60 0.64 0.71 0.77 0.80
0.94 0.81 0.63 0.72 0.73 0.57 0.40 0.18 0.15 0.17 0.14 0.11 0.08 0.08 0.07 0.06 0.05 0.02 0.01 0.01 0.01 0.01 0.01 0.00 0.02 0.02 0.04 0.05 0.05 0.06 0.06 0.09 0.10 0.09 0.11 0.12 0.18 0.34 0.41 0.65 0.79 0.89 1.07 1.15
1.32 1.04 0.91 0.90 0.50 0.36 0.31 0.27 0.15 0.07 0.04 0.03 0.02 0.01 0.01 0.02 0.02 0.01 0.01 0.02 0.02 0.02 0.01 0.02 0.02 0.03 0.03 0.02 0.04 0.07 0.11 0.13 0.21 0.22 0.21 0.21 0.24 0.33 0.47 0.53 0.53 0.57 0.71 0.83
0.60 0.92 0.88 0.73 0.47 0.26 0.17 0.09 0.03 0.01 0.01 0.02 0.03 0.02 0.05 0.04 0.03 0.04 0.03 0.03 0.03 0.03 0.04 0.04 0.05 0.07 0.13 0.18 0.16 0.18 0.21 0.23 0.21 0.23 0.30 0.35 0.40 0.45 0.60 0.80 0.87 1.02 1.14 1.22
0.40 0.47 0.37 0.23 0.15 0.07 0.02 0.01 0.02 0.01 0.01 0.02 0.07 0.08 0.06 0.05 0.05 0.03 0.04 0.02 0.02 0.02 0.04 0.06 0.13 0.26 0.40 0.54 0.62 0.74 0.87 0.98 0.99 1.07 1.05 0.99 0.95 0.95 0.98 1.02 1.12 1.37 1.39 1.25
0.22 0.19 0.20 0.14 0.05 0.03 0.02 0.03 0.04 0.07 0.13 0.17 0.13 0.07 0.04 0.04 0.04 0.04 0.03 0.02 0.02 0.03 0.07 0.12 0.19 0.31 0.40 0.47 0.60 0.70 0.77 0.90 0.95 1.00 1.02 0.97 0.93 0.92 0.90 0.87 0.81 0.84 0.78 0.71
0.03 0.05 0.09 0.09 0.07 0.04 0.04 0.06 0.13 0.29 0.25 0.15 0.08 0.04 0.04 0.05 0.05 0.05 0.06 0.05 0.06 0.11 0.13 0.15 0.21 0.32 0.25 0.22 0.28 0.38 0.53 0.68 0.65 0.72 0.81 0.79 0.79 0.76 0.75 0.72 0.70 0.68 0.63 0.67
0.01 0.02 0.04 0.10 0.13 0.15 0.22 0.29 0.31 0.27 0.17 0.09 0.09 0.08 0.06 0.05 0.06 0.09 0.12 0.14 0.13 0.17 0.18 0.22 0.42 0.44 0.45 0.52 0.58 0.76 0.83 0.87 0.82 0.76 0.79 0.78 0.72 0.64 0.59 0.55 0.52 0.50 0.55 0.53
0.02 0.03 0.07 0.15 0.31 0.32 0.22 0.16 0.13 0.12 0.14 0.16 0.16 0.14 0.17 0.20 0.27 0.32 0.37 0.31 0.26 0.31 0.51 0.70 0.75 0.75 0.76 0.78 0.74 0.75 0.73 0.72 0.66 0.65 0.62 0.58 0.55 0.50 0.52 0.51 0.47 0.42 0.36 0.26
0.12 0.19 0.23 0.26 0.23 0.18 0.15 0.15 0.17 0.18 0.21 0.24 0.28 0.39 0.45 0.54 0.56 0.67 0.70 0.66 0.74 0.76 1.12 0.98 0.84 0.74 0.74 0.73 0.57 0.53 0.51 0.46 0.41 0.43 0.43 0.41 0.40 0.40 0.38 0.32 0.28 0.24 0.24 0.25
0.21 0.17 0.15 0.13 0.10 0.11 0.15 0.21 0.24 0.32 0.45 0.46 0.55 0.70 0.84 1.05 1.03 1.02 0.89 0.91 0.98 1.03 0.96 0.78 0.55 0.44 0.42 0.37 0.29 0.27 0.29 0.31 0.30 0.30 0.28 0.25 0.24 0.23 0.20 0.20 0.25 0.29 0.27 0.25
0.44 0.41 0.41 0.41 0.48 0.55 0.62 0.73 0.68 0.88 1.13 1.07 0.90 0.98 0.97 1.09 1.01 0.94 0.76 0.72 0.83 0.63 0.47 0.39 0.32 0.28 0.21 0.18 0.16 0.16 0.17 0.18 0.19 0.21 0.23 0.26 0.25 0.26 0.31 0.31 0.28 0.27 0.28 0.25
0.62 0.62 0.72 0.75 0.68 0.84 0.96 0.93 0.78 0.79 0.80 0.78 0.77 0.76 0.66 0.75 0.66 0.56 0.52 0.48 0.52 0.38 0.27 0.22 0.19 0.13 0.10 0.10 0.12 0.13 0.14 0.18 0.21 0.22 0.26 0.30 0.34 0.31 0.26 0.23 0.23 0.23 0.22 0.22
0.64 0.60 0.60 0.62 0.57 0.63 0.68 0.65 0.67 0.55 0.56 0.58 0.58 0.58 0.48 0.49 0.46 0.35 0.37 0.35 0.23 0.19 0.15 0.14 0.11 0.07 0.07 0.11 0.13 0.16 0.18 0.23 0.26 0.28 0.29 0.25 0.24 0.23 0.22 0.19 0.18 0.19 0.20 0.20
0.60 0.58 0.61 0.61 0.45 0.31 0.40 0.57 0.45 0.42 0.37 0.36 0.34 0.31 0.23 0.20 0.26 0.20 0.17 0.15 0.10 0.09 0.08 0.08 0.08 0.06 0.09 0.16 0.18 0.21 0.24 0.24 0.19 0.19 0.20 0.18 0.19 0.20 0.20 0.18 0.17 0.16 0.17 0.17
0.53 0.53 0.54 0.49 0.38 0.44 0.39 0.38 0.26 0.25 0.17 0.16 0.15 0.13 0.10 0.09 0.16 0.14 0.07 0.07 0.07 0.10 0.12 0.10 0.10 0.08 0.14 0.18 0.19 0.18 0.19 0.19 0.16 0.19 0.20 0.20 0.20 0.21 0.20 0.20 0.20 0.19 0.18 0.16
0.42 0.40 0.42 0.38 0.37 0.32 0.27 0.18 0.17 0.17 0.11 0.12 0.16 0.14 0.11 0.09 0.09 0.09 0.10 0.10 0.09 0.10 0.16 0.16 0.15 0.14 0.19 0.19 0.20 0.19 0.20 0.19 0.18 0.19 0.22 0.21 0.21 0.20 0.20 0.18 0.19 0.19 0.20 0.20
0.36 0.34 0.26 0.20 0.19 0.18 0.16 0.17 0.16 0.17 0.16 0.15 0.17 0.16 0.13 0.12 0.11 0.11 0.12 0.14 0.15 0.15 0.18 0.19 0.18 0.18 0.20 0.21 0.21 0.20 0.20 0.19 0.18 0.19 0.20 0.21 0.22 0.21 0.21 0.22 0.22 0.21 0.19 0.19

GFSNGP_prec_precacc_138.txt.gz
Total_Precipitation_Accumulation
0.57 0.67 0.56 1.00 1.01 1.03 0.78 0.68 0.82 0.93 0.53 0.52 0.45 0.83 0.89 0.61 0.57 0.49 0.69 0.51 0.41 0.38 0.42 0.66 0.87 0.90 0.94 0.89 0.97 1.11 1.28 1.10 0.80 0.79 0.69 0.65 0.61 0.51 0.50 0.46 0.45 0.43 0.46 0.52
1.36 0.85 0.34 0.80 1.01 0.86 0.58 0.68 0.72 0.46 0.49 0.43 0.33 0.50 0.89 0.74 0.70 0.49 0.51 0.74 0.60 0.50 0.39 0.39 0.40 0.48 0.55 0.55 0.60 0.61 0.64 0.67 0.72 0.59 0.62 0.61 0.48 0.49 0.35 0.31 0.39 0.54 0.68 0.76
0.54 0.44 0.18 0.52 0.82 0.48 0.28 0.24 0.25 0.24 0.33 0.29 0.33 0.43 0.60 0.71 0.73 0.56 0.52 0.65 0.76 0.81 0.73 0.73 0.62 0.59 0.56 0.58 0.54 0.56 0.56 0.54 0.48 0.59 0.62 0.67 0.62 0.59 0.63 0.69 0.66 0.57 0.59 0.63
0.35 0.24 0.63 0.89 0.38 0.23 0.21 0.30 0.16 0.16 0.23 0.29 0.37 0.46 0.45 0.53 0.84 0.73 0.70 0.87 0.91 0.91 0.88 0.88 0.74 0.69 0.77 0.80 0.79 0.68 0.63 0.60 0.53 0.52 0.64 0.79 0.75 0.76 0.95 0.95 0.81 0.73 0.70 0.62
0.40 0.33 0.44 0.25 0.07 0.07 0.17 0.20 0.15 0.23 0.49 0.46 0.55 0.63 0.75 1.00 1.20 1.21 0.93 0.67 0.71 0.89 0.99 0.73 0.75 0.68 0.73 0.75 0.91 0.97 0.95 0.90 0.86 0.73 0.79 0.92 1.09 1.14 0.98 0.92 0.97 0.96 0.95 0.99
0.43 0.43 0.41 0.19 0.02 0.00 0.03 0.18 0.08 0.17 0.64 0.63 0.64 0.56 0.62 0.82 1.32 1.18 0.76 0.39 0.29 0.27 0.40 0.73 0.72 0.56 0.58 0.67 0.62 0.83 1.08 1.11 1.22 1.34 1.48 1.58 1.52 1.40 1.47 1.46 1.35 1.29 1.26 1.19
0.43 0.47 0.19 0.02 0.04 0.03 0.26 0.38 0.10 0.07 0.22 0.64 0.84 1.02 1.04 0.98 1.09 0.85 0.61 0.19 0.06 0.03 0.02 0.05 0.29 0.48 0.44 0.45 0.64 0.67 0.72 1.02 1.09 1.27 1.38 1.32 1.49 1.59 1.73 1.97 2.09 1.97 1.84 1.57
0.51 0.52 0.31 0.05 0.16 0.32 0.33 0.15 0.09 0.07 0.05 0.14 0.44 0.52 0.42 0.66 0.64 0.48 0.29 0.06 0.00 0.00 0.00 0.01 0.01 0.05 0.19 0.29 0.35 0.43 0.50 0.46 0.58 0.67 0.71 0.92 0.95 1.03 1.16 1.21 1.35 1.46 1.49 1.59
0.22 0.26 0.31 0.24 0.27 0.27 0.14 0.18 0.16 0.10 0.15 0.27 0.31 0.29 0.37 0.32 0.16 0.06 0.04 0.02 0.01 0.01 0.02 0.02 0.01 0.02 0.04 0.07 0.10 0.13 0.18 0.24 0.30 0.37 0.50 0.55 0.63 0.71 0.69 0.72 0.72 0.77 0.83 0.91
0.53 0.64 0.39 0.48 0.36 0.13 0.11 0.21 0.22 0.16 0.11 0.11 0.10 0.11 0.15 0.13 0.06 0.03 0.02 0.02 0.02 0.02 0.01 0.01 0.01 0.01 0.04 0.03 0.04 0.05 0.07 0.08 0.10 0.18 0.26 0.27 0.35 0.42 0.52 0.60 0.64 0.71 0.77 0.80
0.94 0.81 0.63 0.72 0.73 0.57 0.40 0.18 0.15 0.17 0.14 0.11 0.08 0.08 0.07 0.06 0.05 0.03 0.01 0.01 0.01 0.01 0.01 0.00 0.02 0.02 0.04 0.05 0.05 0.06 0.06 0.09 0.10 0.09 0.11 0.12 0.18 0.34 0.41 0.66 0.80 0.89 1.07 1.15
1.32 1.04 0.91 0.90 0.50 0.36 0.31 0.27 0.15 0.07 0.04 0.03 0.02 0.01 0.01 0.02 0.02 0.01 0.01 0.02 0.02 0.02 0.01 0.02 0.02 0.03 0.03 0.02 0.04 0.07 0.11 0.13 0.21 0.22 0.21 0.21 0.24 0.33 0.47 0.53 0.53 0.57 0.71 0.83
0.60 0.92 0.88 0.73 0.47 0.26 0.17 0.09 0.03 0.01 0.01 0.02 0.03 0.03 0.07 0.06 0.04 0.04 0.03 0.03 0.03 0.03 0.04 0.04 0.05 0.07 0.13 0.18 0.16 0.18 0.21 0.23 0.21 0.23 0.30 0.35 0.40 0.45 0.60 0.80 0.87 1.02 1.14 1.22
0.40 0.47 0.37 0.23 0.15 0.07 0.02 0.01 0.02 0.01 0.01 0.02 0.08 0.09 0.07 0.06 0.05 0.03 0.04 0.02 0.02 0.02 0.04 0.06 0.13 0.26 0.40 0.54 0.62 0.74 0.87 0.98 0.99 1.07 1.05 0.99 0.95 0.95 0.98 1.02 1.12 1.37 1.39 1.25
0.22 0.19 0.20 0.14 0.05 0.03 0.02 0.03 0.04 0.07 0.13 0.17 0.13 0.07 0.04 0.04 0.04 0.04 0.03 0.02 0.02 0.03 0.07 0.12 0.19 0.31 0.40 0.47 0.60 0.70 0.77 0.90 0.95 1.00 1.02 0.97 0.93 0.92 0.90 0.87 0.81 0.84 0.78 0.71
0.03 0.05 0.09 0.09 0.07 0.04 0.04 0.06 0.13 0.29 0.25 0.15 0.08 0.04 0.04 0.05 0.05 0.05 0.06 0.05 0.06 0.11 0.13 0.15 0.21 0.32 0.25 0.22 0.28 0.38 0.53 0.68 0.65 0.72 0.81 0.79 0.79 0.76 0.75 0.72 0.70 0.68 0.63 0.67
0.01 0.02 0.04 0.10 0.13 0.15 0.22 0.29 0.31 0.27 0.17 0.09 0.09 0.08 0.06 0.05 0.06 0.09 0.12 0.14 0.13 0.17 0.18 0.22 0.42 0.44 0.45 0.52 0.58 0.76 0.83 0.87 0.82 0.76 0.79 0.78 0.72 0.64 0.59 0.55 0.52 0.50 0.55 0.53
0.02 0.03 0.07 0.15 0.31 0.32 0.22 0.16 0.13 0.12 0.14 0.16 0.16 0.14 0.17 0.20 0.27 0.32 0.37 0.31 0.26 0.31 0.51 0.70 0.75 0.75 0.76 0.78 0.74 0.75 0.73 0.72 0.66 0.65 0.62 0.58 0.55 0.50 0.52 0.51 0.47 0.42 0.36 0.26
0.12 0.19 0.23 0.26 0.23 0.18 0.15 0.15 0.17 0.18 0.21 0.24 0.28 0.39 0.45 0.54 0.56 0.67 0.70 0.66 0.74 0.76 1.12 0.98 0.84 0.74 0.74 0.73 0.57 0.53 0.51 0.46 0.41 0.43 0.43 0.41 0.40 0.40 0.38 0.32 0.28 0.24 0.24 0.25
0.21 0.17 0.15 0.13 0.10 0.11 0.15 0.21 0.24 0.32 0.45 0.46 0.55 0.70 0.84 1.05 1.03 1.02 0.89 0.91 0.98 1.03 0.96 0.78 0.55 0.44 0.42 0.37 0.29 0.27 0.29 0.31 0.30 0.30 0.28 0.25 0.24 0.23 0.20 0.20 0.25 0.29 0.27 0.25
0.44 0.41 0.41 0.41 0.48 0.55 0.62 0.73 0.68 0.88 1.13 1.07 0.90 0.98 0.97 1.09 1.01 0.94 0.76 0.72 0.83 0.63 0.47 0.39 0.32 0.28 0.21 0.18 0.16 0.16 0.17 0.18 0.19 0.21 0.23 0.26 0.25 0.26 0.31 0.31 0.28 0.27 0.28 0.25
0.62 0.62 0.72 0.75 0.68 0.84 0.96 0.93 0.78 0.79 0.80 0.78 0.77 0.76 0.66 0.75 0.66 0.56 0.52 0.48 0.52 0.38 0.27 0.22 0.19 0.13 0.10 0.10 0.12 0.13 0.14 0.18 0.21 0.22 0.26 0.30 0.34 0.31 0.27 0.23 0.23 0.23 0.22 0.22
0.64 0.60 0.60 0.62 0.57 0.63 0.68 0.65 0.67 0.55 0.56 0.58 0.58 0.58 0.48 0.49 0.46 0.35 0.37 0.35 0.23 0.19 0.15 0.14 0.11 0.07 0.07 0.11 0.13 0.16 0.18 0.23 0.26 0.28 0.29 0.25 0.26 0.25 0.23 0.20 0.18 0.19 0.20 0.20
0.60 0.58 0.61 0.61 0.45 0.31 0.40 0.57 0.45 0.42 0.37 0.36 0.34 0.31 0.23 0.20 0.26 0.20 0.17 0.15 0.10 0.09 0.08 0.08 0.08 0.06 0.09 0.16 0.18 0.21 0.24 0.25 0.20 0.21 0.22 0.21 0.21 0.20 0.21 0.19 0.17 0.17 0.18 0.19
0.53 0.53 0.54 0.49 0.38 0.44 0.39 0.38 0.26 0.25 0.17 0.16 0.15 0.13 0.10 0.09 0.17 0.15 0.08 0.07 0.07 0.10 0.12 0.10 0.10 0.08 0.15 0.19 0.20 0.20 0.23 0.24 0.20 0.22 0.21 0.21 0.21 0.21 0.21 0.20 0.20 0.20 0.20 0.18
0.42 0.40 0.42 0.38 0.37 0.32 0.27 0.18 0.17 0.17 0.11 0.12 0.16 0.14 0.11 0.09 0.09 0.09 0.10 0.10 0.09 0.10 0.16 0.17 0.16 0.16 0.21 0.22 0.24 0.23 0.24 0.20 0.18 0.20 0.22 0.21 0.21 0.21 0.21 0.19 0.19 0.20 0.21 0.22
0.36 0.34 0.26 0.20 0.19 0.18 0.16 0.17 0.16 0.17 0.16 0.15 0.17 0.16 0.13 0.12 0.11 0.11 0.12 0.14 0.16 0.16 0.20 0.20 0.19 0.19 0.20 0.21 0.21 0.20 0.20 0.19 0.19 0.19 0.20 0.21 0.22 0.22 0.22 0.22 0.22 0.21 0.19 0.20